Wetterdaten: Freitag, 10.03.2017
Datum Zeit Temp. A. Feuchte A. Luftdruck Regen Wind Richtung Richtung Sonnenschein ET UV Solar Taupunkt Windchill Windben Empfang
10.03.2017 00:00 8,1 C 92 % 1016,2 hPa 0,0 l/m 10,9 km/h (2 Bft) SW 231 0 min 0,000 mm 0,0 UV-I 0 W/m 6,9 C 4,9 C 20,9 km/h (4 Bft) 97,37 %
10.03.2017 00:02 8,0 C 92 % 1016,2 hPa 0,0 l/m 10,7 km/h (2 Bft) W 259 0 min 0,000 mm 0,0 UV-I 0 W/m 6,8 C 5,0 C 16,1 km/h (3 Bft) 97,14 %
10.03.2017 00:04 8,0 C 92 % 1016,3 hPa 0,0 l/m 11,3 km/h (2 Bft) W-SW 256 0 min 0,000 mm 0,0 UV-I 0 W/m 6,8 C 4,6 C 14,5 km/h (3 Bft) 96,23 %
10.03.2017 00:06 8,0 C 93 % 1016,3 hPa 0,0 l/m 9,7 km/h (2 Bft) W 269 0 min 0,000 mm 0,0 UV-I 0 W/m 6,9 C 5,6 C 14,5 km/h (3 Bft) 96,00 %
10.03.2017 00:08 8,0 C 93 % 1016,3 hPa 0,0 l/m 12,7 km/h (3 Bft) W 259 0 min 0,000 mm 0,0 UV-I 0 W/m 6,9 C 3,8 C 24,1 km/h (4 Bft) 94,74 %
10.03.2017 00:10 8,0 C 93 % 1016,3 hPa 0,0 l/m 16,0 km/h (3 Bft) W 265 0 min 0,000 mm 0,0 UV-I 0 W/m 6,9 C 2,3 C 25,7 km/h (4 Bft) 98,21 %
10.03.2017 00:12 8,0 C 93 % 1016,3 hPa 0,0 l/m 16,5 km/h (3 Bft) W 259 0 min 0,000 mm 0,0 UV-I 0 W/m 6,9 C 2,1 C 24,1 km/h (4 Bft) 92,11 %
10.03.2017 00:14 8,1 C 93 % 1016,3 hPa 0,2 l/m 13,0 km/h (3 Bft) W 261 0 min 0,000 mm 0,0 UV-I 0 W/m 7,0 C 3,8 C 27,4 km/h (4 Bft) 98,00 %
10.03.2017 00:16 8,1 C 93 % 1016,3 hPa 0,0 l/m 7,3 km/h (2 Bft) W-NW 286 0 min 0,000 mm 0,0 UV-I 0 W/m 7,0 C 7,4 C 14,5 km/h (3 Bft) 95,12 %
10.03.2017 00:18 8,1 C 93 % 1016,4 hPa 0,2 l/m 11,1 km/h (2 Bft) W-SW 253 0 min 0,000 mm 0,0 UV-I 0 W/m 7,0 C 4,8 C 14,5 km/h (3 Bft) 97,73 %
10.03.2017 00:20 8,0 C 94 % 1016,4 hPa 0,0 l/m 13,8 km/h (3 Bft) W 267 0 min 0,000 mm 0,0 UV-I 0 W/m 7,1 C 3,3 C 27,4 km/h (4 Bft) 95,16 %
10.03.2017 00:22 8,1 C 94 % 1016,3 hPa 0,0 l/m 14,3 km/h (3 Bft) W 277 0 min 0,000 mm 0,0 UV-I 0 W/m 7,2 C 3,2 C 25,7 km/h (4 Bft) 95,12 %
10.03.2017 00:24 8,1 C 94 % 1016,2 hPa 0,0 l/m 12,1 km/h (2 Bft) W 269 0 min 0,000 mm 0,0 UV-I 0 W/m 7,2 C 4,3 C 24,1 km/h (4 Bft) 94,00 %
10.03.2017 00:26 8,0 C 94 % 1016,3 hPa 0,0 l/m 11,6 km/h (2 Bft) W 281 0 min 0,000 mm 0,0 UV-I 0 W/m 7,1 C 4,4 C 19,3 km/h (3 Bft) 96,00 %
10.03.2017 00:28 8,0 C 94 % 1016,2 hPa 0,0 l/m 9,3 km/h (2 Bft) W-NW 286 0 min 0,000 mm 0,0 UV-I 0 W/m 7,1 C 5,8 C 14,5 km/h (3 Bft) 95,12 %
10.03.2017 00:30 8,0 C 94 % 1016,2 hPa 0,0 l/m 8,6 km/h (2 Bft) W 260 0 min 0,000 mm 0,0 UV-I 0 W/m 7,1 C 6,3 C 17,7 km/h (3 Bft) 98,11 %
10.03.2017 00:32 7,9 C 94 % 1016,3 hPa 0,0 l/m 14,6 km/h (3 Bft) W-SW 243 0 min 0,000 mm 0,0 UV-I 0 W/m 7,0 C 2,8 C 19,3 km/h (3 Bft) 95,24 %
10.03.2017 00:34 7,9 C 94 % 1016,4 hPa 0,0 l/m 11,8 km/h (2 Bft) W-SW 248 0 min 0,000 mm 0,0 UV-I 0 W/m 7,0 C 4,2 C 17,7 km/h (3 Bft) 97,56 %
10.03.2017 00:36 7,9 C 94 % 1016,4 hPa 0,0 l/m 11,2 km/h (2 Bft) W 261 0 min 0,000 mm 0,0 UV-I 0 W/m 7,0 C 4,5 C 16,1 km/h (3 Bft) 100,00 %
10.03.2017 00:38 7,9 C 94 % 1016,5 hPa 0,0 l/m 13,7 km/h (3 Bft) W-SW 250 0 min 0,000 mm 0,0 UV-I 0 W/m 7,0 C 3,2 C 17,7 km/h (3 Bft) 97,87 %
10.03.2017 00:40 7,9 C 94 % 1016,4 hPa 0,0 l/m 12,1 km/h (2 Bft) W-SW 240 0 min 0,000 mm 0,0 UV-I 0 W/m 7,0 C 4,0 C 20,9 km/h (4 Bft) 100,00 %
10.03.2017 00:42 7,9 C 93 % 1016,4 hPa 0,0 l/m 12,0 km/h (2 Bft) W-SW 247 0 min 0,000 mm 0,0 UV-I 0 W/m 6,8 C 4,1 C 17,7 km/h (3 Bft) 100,00 %
10.03.2017 00:44 7,9 C 93 % 1016,5 hPa 0,0 l/m 9,4 km/h (2 Bft) W-SW 254 0 min 0,000 mm 0,0 UV-I 0 W/m 6,8 C 5,7 C 12,9 km/h (3 Bft) 96,23 %
10.03.2017 00:46 7,8 C 93 % 1016,6 hPa 0,0 l/m 10,7 km/h (2 Bft) W 265 0 min 0,000 mm 0,0 UV-I 0 W/m 6,7 C 4,7 C 17,7 km/h (3 Bft) 100,00 %
10.03.2017 00:48 7,8 C 93 % 1016,6 hPa 0,0 l/m 11,0 km/h (2 Bft) SW 236 0 min 0,000 mm 0,0 UV-I 0 W/m 6,7 C 4,6 C 17,7 km/h (3 Bft) 98,00 %
10.03.2017 00:50 7,8 C 93 % 1016,6 hPa 0,0 l/m 11,5 km/h (2 Bft) W-SW 252 0 min 0,000 mm 0,0 UV-I 0 W/m 6,7 C 4,3 C 17,7 km/h (3 Bft) 98,11 %
10.03.2017 00:52 7,8 C 93 % 1016,6 hPa 0,0 l/m 11,9 km/h (2 Bft) W-SW 248 0 min 0,000 mm 0,0 UV-I 0 W/m 6,7 C 4,0 C 17,7 km/h (3 Bft) 97,37 %
10.03.2017 00:54 7,7 C 92 % 1016,6 hPa 0,0 l/m 12,1 km/h (2 Bft) W-SW 246 0 min 0,000 mm 0,0 UV-I 0 W/m 6,5 C 3,8 C 17,7 km/h (3 Bft) 98,11 %
10.03.2017 00:56 7,7 C 92 % 1016,6 hPa 0,0 l/m 14,4 km/h (3 Bft) W-SW 252 0 min 0,000 mm 0,0 UV-I 0 W/m 6,5 C 2,6 C 22,5 km/h (4 Bft) 100,00 %
10.03.2017 00:58 7,7 C 91 % 1016,6 hPa 0,0 l/m 11,0 km/h (2 Bft) W-SW 245 0 min 0,000 mm 0,0 UV-I 0 W/m 6,3 C 4,4 C 19,3 km/h (3 Bft) 97,56 %
10.03.2017 01:00 7,7 C 91 % 1016,6 hPa 0,0 l/m 11,2 km/h (2 Bft) W-SW 257 0 min 0,000 mm 0,0 UV-I 0 W/m 6,3 C 4,3 C 16,1 km/h (3 Bft) 100,00 %
10.03.2017 01:02 7,7 C 91 % 1016,7 hPa 0,0 l/m 12,3 km/h (3 Bft) W-SW 239 0 min 0,000 mm 0,0 UV-I 0 W/m 6,3 C 3,7 C 16,1 km/h (3 Bft) 95,12 %
10.03.2017 01:04 7,6 C 91 % 1016,7 hPa 0,0 l/m 10,3 km/h (2 Bft) SW 232 0 min 0,000 mm 0,0 UV-I 0 W/m 6,2 C 4,8 C 16,1 km/h (3 Bft) 98,11 %
10.03.2017 01:06 7,6 C 90 % 1016,6 hPa 0,0 l/m 9,1 km/h (2 Bft) W-SW 248 0 min 0,000 mm 0,0 UV-I 0 W/m 6,1 C 5,5 C 14,5 km/h (3 Bft) 100,00 %
10.03.2017 01:08 7,5 C 90 % 1016,5 hPa 0,0 l/m 10,9 km/h (2 Bft) W-SW 252 0 min 0,000 mm 0,0 UV-I 0 W/m 6,0 C 4,3 C 16,1 km/h (3 Bft) 98,08 %
10.03.2017 01:10 7,4 C 90 % 1016,6 hPa 0,0 l/m 8,4 km/h (2 Bft) SW 231 0 min 0,000 mm 0,0 UV-I 0 W/m 5,9 C 5,8 C 12,9 km/h (3 Bft) 100,00 %
10.03.2017 01:12 7,4 C 90 % 1016,6 hPa 0,0 l/m 8,6 km/h (2 Bft) SW 234 0 min 0,000 mm 0,0 UV-I 0 W/m 5,9 C 5,7 C 11,3 km/h (2 Bft) 94,64 %
10.03.2017 01:14 7,4 C 90 % 1016,5 hPa 0,0 l/m 6,6 km/h (2 Bft) SW 232 0 min 0,000 mm 0,0 UV-I 0 W/m 5,9 C 7,3 C 8,0 km/h (2 Bft) 98,08 %
10.03.2017 01:16 7,3 C 90 % 1016,6 hPa 0,0 l/m 5,9 km/h (2 Bft) SW 228 0 min 0,000 mm 0,0 UV-I 0 W/m 5,8 C 7,3 C 9,7 km/h (2 Bft) 95,24 %
10.03.2017 01:18 7,3 C 90 % 1016,5 hPa 0,0 l/m 5,9 km/h (2 Bft) SW 223 0 min 0,000 mm 0,0 UV-I 0 W/m 5,8 C 7,3 C 9,7 km/h (2 Bft) 96,23 %
10.03.2017 01:20 7,2 C 90 % 1016,4 hPa 0,0 l/m 5,3 km/h (1 Bft) W-SW 245 0 min 0,000 mm 0,0 UV-I 0 W/m 5,7 C 7,2 C 8,0 km/h (2 Bft) 97,37 %
10.03.2017 01:22 7,2 C 90 % 1016,3 hPa 0,0 l/m 6,9 km/h (2 Bft) W-SW 246 0 min 0,000 mm 0,0 UV-I 0 W/m 5,7 C 6,8 C 11,3 km/h (2 Bft) 96,00 %
10.03.2017 01:24 7,1 C 90 % 1016,3 hPa 0,0 l/m 7,5 km/h (2 Bft) W-SW 248 0 min 0,000 mm 0,0 UV-I 0 W/m 5,6 C 6,2 C 9,7 km/h (2 Bft) 97,87 %
10.03.2017 01:26 7,1 C 91 % 1016,4 hPa 0,0 l/m 6,2 km/h (2 Bft) S-SW 213 0 min 0,000 mm 0,0 UV-I 0 W/m 5,7 C 7,1 C 8,0 km/h (2 Bft) 98,11 %
10.03.2017 01:28 7,1 C 91 % 1016,4 hPa 0,0 l/m 5,1 km/h (1 Bft) W 271 0 min 0,000 mm 0,0 UV-I 0 W/m 5,7 C 7,1 C 8,0 km/h (2 Bft) 97,37 %
10.03.2017 01:30 7,0 C 91 % 1016,5 hPa 0,0 l/m 4,6 km/h (1 Bft) W-SW 246 0 min 0,000 mm 0,0 UV-I 0 W/m 5,6 C 7,0 C 8,0 km/h (2 Bft) 96,23 %
10.03.2017 01:32 6,9 C 91 % 1016,5 hPa 0,0 l/m 8,2 km/h (2 Bft) W 259 0 min 0,000 mm 0,0 UV-I 0 W/m 5,5 C 5,4 C 14,5 km/h (3 Bft) 95,45 %
10.03.2017 01:34 6,9 C 91 % 1016,6 hPa 0,0 l/m 8,7 km/h (2 Bft) SW 228 0 min 0,000 mm 0,0 UV-I 0 W/m 5,5 C 5,1 C 14,5 km/h (3 Bft) 96,00 %
10.03.2017 01:36 7,0 C 91 % 1016,6 hPa 0,0 l/m 7,6 km/h (2 Bft) W-SW 244 0 min 0,000 mm 0,0 UV-I 0 W/m 5,6 C 6,0 C 11,3 km/h (2 Bft) 93,62 %
10.03.2017 01:38 7,0 C 91 % 1016,6 hPa 0,0 l/m 8,6 km/h (2 Bft) SW 218 0 min 0,000 mm 0,0 UV-I 0 W/m 5,6 C 5,3 C 12,9 km/h (3 Bft) 94,74 %
10.03.2017 01:40 7,0 C 91 % 1016,6 hPa 0,0 l/m 7,5 km/h (2 Bft) W-SW 237 0 min 0,000 mm 0,0 UV-I 0 W/m 5,6 C 6,1 C 11,3 km/h (2 Bft) 96,23 %
10.03.2017 01:42 7,0 C 91 % 1016,7 hPa 0,0 l/m 7,9 km/h (2 Bft) SW 220 0 min 0,000 mm 0,0 UV-I 0 W/m 5,6 C 5,8 C 12,9 km/h (3 Bft) 97,56 %
10.03.2017 01:44 7,0 C 91 % 1016,7 hPa 0,0 l/m 6,9 km/h (2 Bft) W-NW 286 0 min 0,000 mm 0,0 UV-I 0 W/m 5,6 C 6,6 C 12,9 km/h (3 Bft) 95,24 %
10.03.2017 01:46 7,0 C 91 % 1016,6 hPa 0,0 l/m 7,5 km/h (2 Bft) W-SW 248 0 min 0,000 mm 0,0 UV-I 0 W/m 5,6 C 6,1 C 12,9 km/h (3 Bft) 96,15 %
10.03.2017 01:48 7,1 C 91 % 1016,7 hPa 0,0 l/m 8,7 km/h (2 Bft) W 259 0 min 0,000 mm 0,0 UV-I 0 W/m 5,7 C 5,3 C 12,9 km/h (3 Bft) 96,43 %
10.03.2017 01:50 7,0 C 91 % 1016,6 hPa 0,0 l/m 9,0 km/h (2 Bft) SW 229 0 min 0,000 mm 0,0 UV-I 0 W/m 5,6 C 5,0 C 12,9 km/h (3 Bft) 97,44 %
10.03.2017 01:52 7,0 C 91 % 1016,6 hPa 0,0 l/m 7,9 km/h (2 Bft) W-SW 238 0 min 0,000 mm 0,0 UV-I 0 W/m 5,6 C 5,8 C 11,3 km/h (2 Bft) 97,56 %
10.03.2017 01:54 7,0 C 91 % 1016,6 hPa 0,0 l/m 10,6 km/h (2 Bft) W-SW 246 0 min 0,000 mm 0,0 UV-I 0 W/m 5,6 C 3,9 C 16,1 km/h (3 Bft) 94,44 %
10.03.2017 01:56 7,1 C 91 % 1016,7 hPa 0,0 l/m 9,2 km/h (2 Bft) SW 229 0 min 0,000 mm 0,0 UV-I 0 W/m 5,7 C 4,9 C 17,7 km/h (3 Bft) 100,00 %
10.03.2017 01:58 7,1 C 91 % 1016,6 hPa 0,0 l/m 10,0 km/h (2 Bft) W-SW 242 0 min 0,000 mm 0,0 UV-I 0 W/m 5,7 C 4,4 C 16,1 km/h (3 Bft) 94,92 %
10.03.2017 02:00 7,1 C 91 % 1016,6 hPa 0,0 l/m 10,9 km/h (2 Bft) W 265 0 min 0,000 mm 0,0 UV-I 0 W/m 5,7 C 3,8 C 17,7 km/h (3 Bft) 97,73 %
10.03.2017 02:02 7,1 C 91 % 1016,5 hPa 0,0 l/m 9,1 km/h (2 Bft) SW 222 0 min 0,000 mm 0,0 UV-I 0 W/m 5,7 C 5,0 C 16,1 km/h (3 Bft) 95,12 %
10.03.2017 02:04 7,1 C 90 % 1016,5 hPa 0,0 l/m 8,0 km/h (2 Bft) SW 231 0 min 0,000 mm 0,0 UV-I 0 W/m 5,6 C 5,8 C 12,9 km/h (3 Bft) 96,43 %
10.03.2017 02:06 7,1 C 90 % 1016,6 hPa 0,0 l/m 11,6 km/h (2 Bft) W-SW 246 0 min 0,000 mm 0,0 UV-I 0 W/m 5,6 C 3,4 C 20,9 km/h (4 Bft) 97,56 %
10.03.2017 02:08 7,1 C 90 % 1016,6 hPa 0,0 l/m 7,6 km/h (2 Bft) W-SW 257 0 min 0,000 mm 0,0 UV-I 0 W/m 5,6 C 6,1 C 12,9 km/h (3 Bft) 92,00 %
10.03.2017 02:10 7,1 C 90 % 1016,7 hPa 0,0 l/m 15,6 km/h (3 Bft) W-SW 250 0 min 0,000 mm 0,0 UV-I 0 W/m 5,6 C 1,3 C 22,5 km/h (4 Bft) 95,12 %
10.03.2017 02:12 7,1 C 90 % 1016,7 hPa 0,0 l/m 11,3 km/h (2 Bft) W 272 0 min 0,000 mm 0,0 UV-I 0 W/m 5,6 C 3,6 C 16,1 km/h (3 Bft) 91,49 %
10.03.2017 02:14 7,0 C 90 % 1016,7 hPa 0,0 l/m 13,4 km/h (3 Bft) W 265 0 min 0,000 mm 0,0 UV-I 0 W/m 5,5 C 2,3 C 20,9 km/h (4 Bft) 94,34 %
10.03.2017 02:16 7,1 C 90 % 1016,7 hPa 0,0 l/m 8,9 km/h (2 Bft) W-SW 252 0 min 0,000 mm 0,0 UV-I 0 W/m 5,6 C 5,1 C 14,5 km/h (3 Bft) 92,11 %
10.03.2017 02:18 7,0 C 90 % 1016,7 hPa 0,0 l/m 10,6 km/h (2 Bft) W-SW 250 0 min 0,000 mm 0,0 UV-I 0 W/m 5,5 C 3,9 C 17,7 km/h (3 Bft) 94,00 %
10.03.2017 02:20 7,0 C 90 % 1016,6 hPa 0,0 l/m 12,6 km/h (3 Bft) W 264 0 min 0,000 mm 0,0 UV-I 0 W/m 5,5 C 2,7 C 22,5 km/h (4 Bft) 96,00 %
10.03.2017 02:22 7,0 C 91 % 1016,8 hPa 0,0 l/m 11,9 km/h (2 Bft) W 266 0 min 0,000 mm 0,0 UV-I 0 W/m 5,6 C 3,1 C 20,9 km/h (4 Bft) 96,00 %
10.03.2017 02:24 7,0 C 91 % 1016,8 hPa 0,0 l/m 13,7 km/h (3 Bft) W 264 0 min 0,000 mm 0,0 UV-I 0 W/m 5,6 C 2,1 C 20,9 km/h (4 Bft) 94,87 %
10.03.2017 02:26 7,1 C 90 % 1016,8 hPa 0,0 l/m 10,7 km/h (2 Bft) W 262 0 min 0,000 mm 0,0 UV-I 0 W/m 5,6 C 3,9 C 17,7 km/h (3 Bft) 96,55 %
10.03.2017 02:28 7,1 C 90 % 1016,8 hPa 0,0 l/m 10,9 km/h (2 Bft) W-SW 258 0 min 0,000 mm 0,0 UV-I 0 W/m 5,6 C 3,8 C 17,7 km/h (3 Bft) 95,12 %
10.03.2017 02:30 7,0 C 90 % 1016,8 hPa 0,0 l/m 15,0 km/h (3 Bft) SW 235 0 min 0,000 mm 0,0 UV-I 0 W/m 5,5 C 1,5 C 27,4 km/h (4 Bft) 90,48 %
10.03.2017 02:32 7,0 C 90 % 1016,8 hPa 0,0 l/m 12,3 km/h (3 Bft) W-SW 252 0 min 0,000 mm 0,0 UV-I 0 W/m 5,5 C 2,9 C 22,5 km/h (4 Bft) 94,00 %
10.03.2017 02:34 7,0 C 90 % 1016,9 hPa 0,0 l/m 9,2 km/h (2 Bft) W-SW 252 0 min 0,000 mm 0,0 UV-I 0 W/m 5,5 C 4,8 C 19,3 km/h (3 Bft) 95,45 %
10.03.2017 02:36 6,9 C 90 % 1017,0 hPa 0,0 l/m 14,2 km/h (3 Bft) W-SW 246 0 min 0,000 mm 0,0 UV-I 0 W/m 5,4 C 1,8 C 27,4 km/h (4 Bft) 97,87 %
10.03.2017 02:38 6,9 C 89 % 1017,0 hPa 0,0 l/m 15,3 km/h (3 Bft) W-NW 299 0 min 0,000 mm 0,0 UV-I 0 W/m 5,2 C 1,2 C 25,7 km/h (4 Bft) 96,00 %
10.03.2017 02:40 6,9 C 89 % 1016,9 hPa 0,0 l/m 14,8 km/h (3 Bft) W-SW 242 0 min 0,000 mm 0,0 UV-I 0 W/m 5,2 C 1,5 C 32,2 km/h (5 Bft) 92,45 %
10.03.2017 02:42 6,9 C 88 % 1017,0 hPa 0,0 l/m 16,8 km/h (3 Bft) SW 215 0 min 0,000 mm 0,0 UV-I 0 W/m 5,1 C 0,6 C 25,7 km/h (4 Bft) 100,00 %
10.03.2017 02:44 6,9 C 88 % 1017,0 hPa 0,0 l/m 12,6 km/h (3 Bft) W 267 0 min 0,000 mm 0,0 UV-I 0 W/m 5,1 C 2,6 C 24,1 km/h (4 Bft) 94,64 %
10.03.2017 02:46 6,9 C 88 % 1016,9 hPa 0,0 l/m 10,7 km/h (2 Bft) W-NW 289 0 min 0,000 mm 0,0 UV-I 0 W/m 5,1 C 3,7 C 17,7 km/h (3 Bft) 100,00 %
10.03.2017 02:48 6,8 C 87 % 1017,0 hPa 0,0 l/m 13,7 km/h (3 Bft) W 269 0 min 0,000 mm 0,0 UV-I 0 W/m 4,8 C 1,9 C 29,0 km/h (5 Bft) 98,21 %
10.03.2017 02:50 6,8 C 87 % 1017,0 hPa 0,0 l/m 15,1 km/h (3 Bft) W 266 0 min 0,000 mm 0,0 UV-I 0 W/m 4,8 C 1,2 C 33,8 km/h (5 Bft) 96,00 %
10.03.2017 02:52 6,8 C 87 % 1017,1 hPa 0,0 l/m 12,3 km/h (3 Bft) W-NW 283 0 min 0,000 mm 0,0 UV-I 0 W/m 4,8 C 2,7 C 24,1 km/h (4 Bft) 97,37 %
10.03.2017 02:54 6,7 C 87 % 1017,1 hPa 0,0 l/m 20,2 km/h (4 Bft) W-SW 258 0 min 0,000 mm 0,0 UV-I 0 W/m 4,7 C -1,1 C 41,8 km/h (6 Bft) 100,00 %
10.03.2017 02:56 6,7 C 86 % 1017,1 hPa 0,0 l/m 18,0 km/h (3 Bft) W-SW 253 0 min 0,000 mm 0,0 UV-I 0 W/m 4,5 C -0,2 C 33,8 km/h (5 Bft) 96,43 %
10.03.2017 02:58 6,7 C 86 % 1017,1 hPa 0,0 l/m 15,7 km/h (3 Bft) W 266 0 min 0,000 mm 0,0 UV-I 0 W/m 4,5 C 0,8 C 29,0 km/h (5 Bft) 97,37 %
10.03.2017 03:00 6,6 C 86 % 1017,2 hPa 0,0 l/m 13,6 km/h (3 Bft) W 259 0 min 0,025 mm 0,0 UV-I 0 W/m 4,4 C 1,7 C 22,5 km/h (4 Bft) 100,00 %
10.03.2017 03:02 6,6 C 86 % 1017,3 hPa 0,0 l/m 14,0 km/h (3 Bft) W-SW 248 0 min 0,000 mm 0,0 UV-I 0 W/m 4,4 C 1,5 C 20,9 km/h (4 Bft) 97,87 %
10.03.2017 03:04 6,5 C 86 % 1017,3 hPa 0,0 l/m 16,0 km/h (3 Bft) W 259 0 min 0,000 mm 0,0 UV-I 0 W/m 4,3 C 0,4 C 29,0 km/h (5 Bft) 97,87 %
10.03.2017 03:06 6,6 C 86 % 1017,4 hPa 0,0 l/m 17,1 km/h (3 Bft) W 265 0 min 0,000 mm 0,0 UV-I 0 W/m 4,4 C 0,1 C 29,0 km/h (5 Bft) 100,00 %
10.03.2017 03:08 6,5 C 86 % 1017,4 hPa 0,0 l/m 15,0 km/h (3 Bft) W 277 0 min 0,000 mm 0,0 UV-I 0 W/m 4,3 C 0,9 C 22,5 km/h (4 Bft) 96,36 %
10.03.2017 03:10 6,4 C 86 % 1017,4 hPa 0,0 l/m 16,5 km/h (3 Bft) W-SW 254 0 min 0,000 mm 0,0 UV-I 0 W/m 4,2 C 0,1 C 25,7 km/h (4 Bft) 100,00 %
10.03.2017 03:12 6,4 C 86 % 1017,4 hPa 0,0 l/m 15,7 km/h (3 Bft) W 270 0 min 0,000 mm 0,0 UV-I 0 W/m 4,2 C 0,4 C 25,7 km/h (4 Bft) 100,00 %
10.03.2017 03:14 6,4 C 85 % 1017,5 hPa 0,0 l/m 12,4 km/h (3 Bft) W-NW 292 0 min 0,000 mm 0,0 UV-I 0 W/m 4,1 C 2,1 C 25,7 km/h (4 Bft) 100,00 %
10.03.2017 03:16 6,4 C 86 % 1017,4 hPa 0,0 l/m 12,4 km/h (3 Bft) NW 304 0 min 0,000 mm 0,0 UV-I 0 W/m 4,2 C 2,1 C 22,5 km/h (4 Bft) 100,00 %
10.03.2017 03:18 6,4 C 86 % 1017,4 hPa 0,0 l/m 11,9 km/h (2 Bft) W 264 0 min 0,000 mm 0,0 UV-I 0 W/m 4,2 C 2,4 C 27,4 km/h (4 Bft) 97,56 %
10.03.2017 03:20 6,3 C 86 % 1017,5 hPa 0,0 l/m 12,4 km/h (3 Bft) W-SW 250 0 min 0,000 mm 0,0 UV-I 0 W/m 4,1 C 2,0 C 19,3 km/h (3 Bft) 97,73 %
10.03.2017 03:22 6,3 C 86 % 1017,5 hPa 0,0 l/m 15,2 km/h (3 Bft) W-SW 244 0 min 0,000 mm 0,0 UV-I 0 W/m 4,1 C 0,6 C 25,7 km/h (4 Bft) 100,00 %
10.03.2017 03:24 6,3 C 86 % 1017,6 hPa 0,0 l/m 14,4 km/h (3 Bft) W-SW 257 0 min 0,000 mm 0,0 UV-I 0 W/m 4,1 C 0,9 C 25,7 km/h (4 Bft) 98,00 %
10.03.2017 03:26 6,3 C 86 % 1017,6 hPa 0,0 l/m 14,5 km/h (3 Bft) W-NW 290 0 min 0,000 mm 0,0 UV-I 0 W/m 4,1 C 0,9 C 32,2 km/h (5 Bft) 100,00 %
10.03.2017 03:28 6,2 C 86 % 1017,7 hPa 0,0 l/m 16,1 km/h (3 Bft) W-SW 258 0 min 0,000 mm 0,0 UV-I 0 W/m 4,0 C 0,0 C 25,7 km/h (4 Bft) 97,73 %
10.03.2017 03:30 6,2 C 86 % 1017,7 hPa 0,0 l/m 15,4 km/h (3 Bft) W-SW 248 0 min 0,000 mm 0,0 UV-I 0 W/m 4,0 C 0,3 C 27,4 km/h (4 Bft) 98,11 %
10.03.2017 03:32 6,2 C 86 % 1017,7 hPa 0,0 l/m 13,0 km/h (3 Bft) W 267 0 min 0,000 mm 0,0 UV-I 0 W/m 4,0 C 1,6 C 20,9 km/h (4 Bft) 100,00 %
10.03.2017 03:34 6,2 C 86 % 1017,7 hPa 0,0 l/m 15,0 km/h (3 Bft) NW 305 0 min 0,000 mm 0,0 UV-I 0 W/m 4,0 C 0,5 C 25,7 km/h (4 Bft) 97,73 %
10.03.2017 03:36 6,2 C 86 % 1017,8 hPa 0,0 l/m 14,9 km/h (3 Bft) W-NW 301 0 min 0,000 mm 0,0 UV-I 0 W/m 4,0 C 0,6 C 25,7 km/h (4 Bft) 100,00 %
10.03.2017 03:38 6,2 C 86 % 1017,8 hPa 0,0 l/m 13,0 km/h (3 Bft) W 274 0 min 0,000 mm 0,0 UV-I 0 W/m 4,0 C 1,6 C 22,5 km/h (4 Bft) 98,11 %
10.03.2017 03:40 6,1 C 86 % 1017,8 hPa 0,0 l/m 11,5 km/h (2 Bft) W 269 0 min 0,000 mm 0,0 UV-I 0 W/m 3,9 C 2,3 C 22,5 km/h (4 Bft) 97,56 %
10.03.2017 03:42 6,1 C 86 % 1017,8 hPa 0,0 l/m 10,4 km/h (2 Bft) W 272 0 min 0,000 mm 0,0 UV-I 0 W/m 3,9 C 3,0 C 17,7 km/h (3 Bft) 96,08 %
10.03.2017 03:44 6,1 C 86 % 1017,8 hPa 0,0 l/m 9,6 km/h (2 Bft) W 260 0 min 0,000 mm 0,0 UV-I 0 W/m 3,9 C 3,6 C 14,5 km/h (3 Bft) 97,56 %
10.03.2017 03:46 5,9 C 86 % 1017,9 hPa 0,0 l/m 10,3 km/h (2 Bft) W-NW 284 0 min 0,000 mm 0,0 UV-I 0 W/m 3,7 C 2,9 C 20,9 km/h (4 Bft) 100,00 %
10.03.2017 03:48 5,9 C 86 % 1017,9 hPa 0,0 l/m 12,8 km/h (3 Bft) W-SW 248 0 min 0,000 mm 0,0 UV-I 0 W/m 3,7 C 1,3 C 20,9 km/h (4 Bft) 95,83 %
10.03.2017 03:50 5,9 C 86 % 1018,0 hPa 0,0 l/m 10,2 km/h (2 Bft) W-SW 245 0 min 0,000 mm 0,0 UV-I 0 W/m 3,7 C 2,9 C 27,4 km/h (4 Bft) 100,00 %
10.03.2017 03:52 5,9 C 86 % 1018,0 hPa 0,0 l/m 11,1 km/h (2 Bft) W 277 0 min 0,000 mm 0,0 UV-I 0 W/m 3,7 C 2,3 C 22,5 km/h (4 Bft) 97,44 %
10.03.2017 03:54 5,9 C 86 % 1018,0 hPa 0,0 l/m 11,4 km/h (2 Bft) W 262 0 min 0,000 mm 0,0 UV-I 0 W/m 3,7 C 2,2 C 17,7 km/h (3 Bft) 96,43 %
10.03.2017 03:56 5,8 C 85 % 1017,9 hPa 0,0 l/m 12,8 km/h (3 Bft) W-NW 289 0 min 0,000 mm 0,0 UV-I 0 W/m 3,5 C 1,2 C 27,4 km/h (4 Bft) 100,00 %
10.03.2017 03:58 5,8 C 85 % 1018,0 hPa 0,0 l/m 9,9 km/h (2 Bft) W-SW 246 0 min 0,000 mm 0,0 UV-I 0 W/m 3,5 C 3,0 C 20,9 km/h (4 Bft) 98,11 %
10.03.2017 04:00 5,8 C 85 % 1018,0 hPa 0,0 l/m 9,5 km/h (2 Bft) W 265 0 min 0,026 mm 0,0 UV-I 0 W/m 3,5 C 3,3 C 29,0 km/h (5 Bft) 100,00 %
10.03.2017 04:02 5,8 C 85 % 1018,1 hPa 0,0 l/m 11,8 km/h (2 Bft) W-NW 286 0 min 0,000 mm 0,0 UV-I 0 W/m 3,5 C 1,8 C 17,7 km/h (3 Bft) 100,00 %
10.03.2017 04:04 5,8 C 86 % 1018,2 hPa 0,0 l/m 9,1 km/h (2 Bft) W 279 0 min 0,000 mm 0,0 UV-I 0 W/m 3,6 C 3,6 C 14,5 km/h (3 Bft) 100,00 %
10.03.2017 04:06 5,7 C 86 % 1018,2 hPa 0,0 l/m 10,6 km/h (2 Bft) W-NW 287 0 min 0,000 mm 0,0 UV-I 0 W/m 3,5 C 2,4 C 17,7 km/h (3 Bft) 96,23 %
10.03.2017 04:08 5,7 C 86 % 1018,3 hPa 0,0 l/m 11,5 km/h (2 Bft) W-SW 256 0 min 0,000 mm 0,0 UV-I 0 W/m 3,5 C 1,9 C 24,1 km/h (4 Bft) 100,00 %
10.03.2017 04:10 5,7 C 86 % 1018,2 hPa 0,0 l/m 9,7 km/h (2 Bft) W-NW 291 0 min 0,000 mm 0,0 UV-I 0 W/m 3,5 C 3,1 C 19,3 km/h (3 Bft) 98,21 %
10.03.2017 04:12 5,7 C 86 % 1018,2 hPa 0,0 l/m 12,8 km/h (3 Bft) W-NW 288 0 min 0,000 mm 0,0 UV-I 0 W/m 3,5 C 1,1 C 20,9 km/h (4 Bft) 97,56 %
10.03.2017 04:14 5,7 C 86 % 1018,2 hPa 0,0 l/m 16,0 km/h (3 Bft) W-SW 244 0 min 0,000 mm 0,0 UV-I 0 W/m 3,5 C -0,6 C 25,7 km/h (4 Bft) 98,11 %
10.03.2017 04:16 5,8 C 86 % 1018,2 hPa 0,0 l/m 15,4 km/h (3 Bft) W 261 0 min 0,000 mm 0,0 UV-I 0 W/m 3,6 C -0,2 C 25,7 km/h (4 Bft) 97,56 %
10.03.2017 04:18 5,8 C 86 % 1018,1 hPa 0,0 l/m 12,3 km/h (3 Bft) NW 306 0 min 0,000 mm 0,0 UV-I 0 W/m 3,6 C 1,5 C 24,1 km/h (4 Bft) 96,00 %
10.03.2017 04:20 5,8 C 86 % 1018,1 hPa 0,0 l/m 16,3 km/h (3 Bft) W-SW 246 0 min 0,000 mm 0,0 UV-I 0 W/m 3,6 C -0,6 C 29,0 km/h (5 Bft) 94,00 %
10.03.2017 04:22 5,8 C 86 % 1018,2 hPa 0,0 l/m 15,0 km/h (3 Bft) W-NW 299 0 min 0,000 mm 0,0 UV-I 0 W/m 3,6 C 0,0 C 27,4 km/h (4 Bft) 96,30 %
10.03.2017 04:24 5,8 C 85 % 1018,1 hPa 0,0 l/m 20,3 km/h (4 Bft) W-SW 255 0 min 0,000 mm 0,0 UV-I 0 W/m 3,5 C -2,3 C 40,2 km/h (6 Bft) 96,43 %
10.03.2017 04:26 5,8 C 85 % 1018,1 hPa 0,0 l/m 19,2 km/h (3 Bft) W 281 0 min 0,000 mm 0,0 UV-I 0 W/m 3,5 C -1,8 C 29,0 km/h (5 Bft) 97,37 %
10.03.2017 04:28 5,8 C 84 % 1018,2 hPa 0,0 l/m 10,4 km/h (2 Bft) W 270 0 min 0,000 mm 0,0 UV-I 0 W/m 3,3 C 2,7 C 16,1 km/h (3 Bft) 93,55 %
10.03.2017 04:30 5,8 C 84 % 1018,2 hPa 0,0 l/m 15,6 km/h (3 Bft) SW 235 0 min 0,000 mm 0,0 UV-I 0 W/m 3,3 C -0,2 C 24,1 km/h (4 Bft) 96,00 %
10.03.2017 04:32 5,8 C 83 % 1018,2 hPa 0,0 l/m 10,6 km/h (2 Bft) N 11 0 min 0,000 mm 0,0 UV-I 0 W/m 3,1 C 2,6 C 17,7 km/h (3 Bft) 97,14 %
10.03.2017 04:34 5,8 C 83 % 1018,2 hPa 0,0 l/m 18,7 km/h (3 Bft) W-SW 255 0 min 0,000 mm 0,0 UV-I 0 W/m 3,1 C -1,6 C 37,0 km/h (5 Bft) 92,45 %
10.03.2017 04:36 5,8 C 83 % 1018,3 hPa 0,0 l/m 11,8 km/h (2 Bft) W-SW 257 0 min 0,000 mm 0,0 UV-I 0 W/m 3,1 C 1,8 C 29,0 km/h (5 Bft) 98,11 %
10.03.2017 04:38 5,7 C 83 % 1018,4 hPa 0,0 l/m 12,6 km/h (3 Bft) W 277 0 min 0,000 mm 0,0 UV-I 0 W/m 3,0 C 1,2 C 17,7 km/h (3 Bft) 91,30 %
10.03.2017 04:40 5,7 C 82 % 1018,3 hPa 0,0 l/m 17,8 km/h (3 Bft) W-SW 254 0 min 0,000 mm 0,0 UV-I 0 W/m 2,9 C -1,4 C 27,4 km/h (4 Bft) 97,06 %
10.03.2017 04:42 5,7 C 82 % 1018,4 hPa 0,0 l/m 15,9 km/h (3 Bft) W-SW 249 0 min 0,000 mm 0,0 UV-I 0 W/m 2,9 C -0,5 C 22,5 km/h (4 Bft) 97,56 %
10.03.2017 04:44 5,7 C 81 % 1018,4 hPa 0,0 l/m 12,8 km/h (3 Bft) W 261 0 min 0,000 mm 0,0 UV-I 0 W/m 2,7 C 1,1 C 20,9 km/h (4 Bft) 94,64 %
10.03.2017 04:46 5,7 C 81 % 1018,5 hPa 0,0 l/m 13,3 km/h (3 Bft) W-NW 284 0 min 0,000 mm 0,0 UV-I 0 W/m 2,7 C 0,8 C 22,5 km/h (4 Bft) 97,87 %
10.03.2017 04:48 5,6 C 81 % 1018,5 hPa 0,0 l/m 14,1 km/h (3 Bft) NW 304 0 min 0,000 mm 0,0 UV-I 0 W/m 2,6 C 0,3 C 24,1 km/h (4 Bft) 95,12 %
10.03.2017 04:50 5,6 C 81 % 1018,6 hPa 0,0 l/m 15,5 km/h (3 Bft) W 268 0 min 0,000 mm 0,0 UV-I 0 W/m 2,6 C -0,4 C 25,7 km/h (4 Bft) 98,11 %
10.03.2017 04:52 5,6 C 81 % 1018,7 hPa 0,0 l/m 17,1 km/h (3 Bft) W-SW 247 0 min 0,000 mm 0,0 UV-I 0 W/m 2,6 C -1,2 C 25,7 km/h (4 Bft) 94,74 %
10.03.2017 04:54 5,6 C 81 % 1018,6 hPa 0,0 l/m 14,7 km/h (3 Bft) W 264 0 min 0,000 mm 0,0 UV-I 0 W/m 2,6 C -0,0 C 29,0 km/h (5 Bft) 100,00 %
10.03.2017 04:56 5,6 C 80 % 1018,6 hPa 0,0 l/m 17,4 km/h (3 Bft) W 263 0 min 0,000 mm 0,0 UV-I 0 W/m 2,4 C -1,3 C 29,0 km/h (5 Bft) 98,31 %
10.03.2017 04:58 5,6 C 81 % 1018,7 hPa 0,0 l/m 12,7 km/h (3 Bft) W-SW 252 0 min 0,000 mm 0,0 UV-I 0 W/m 2,6 C 1,0 C 20,9 km/h (4 Bft) 97,73 %
10.03.2017 05:00 5,6 C 81 % 1018,6 hPa 0,0 l/m 16,3 km/h (3 Bft) W 266 0 min 0,025 mm 0,0 UV-I 0 W/m 2,6 C -0,8 C 25,7 km/h (4 Bft) 100,00 %
10.03.2017 05:02 5,5 C 80 % 1018,7 hPa 0,2 l/m 18,6 km/h (3 Bft) W-NW 285 0 min 0,000 mm 0,0 UV-I 0 W/m 2,3 C -2,0 C 30,6 km/h (5 Bft) 96,00 %
10.03.2017 05:04 5,5 C 80 % 1018,7 hPa 0,0 l/m 15,1 km/h (3 Bft) W 277 0 min 0,000 mm 0,0 UV-I 0 W/m 2,3 C -0,4 C 25,7 km/h (4 Bft) 98,00 %
10.03.2017 05:06 5,5 C 80 % 1018,7 hPa 0,0 l/m 21,5 km/h (4 Bft) W 269 0 min 0,000 mm 0,0 UV-I 0 W/m 2,3 C -3,1 C 30,6 km/h (5 Bft) 97,62 %
10.03.2017 05:08 5,5 C 80 % 1018,7 hPa 0,0 l/m 19,4 km/h (3 Bft) W-SW 256 0 min 0,000 mm 0,0 UV-I 0 W/m 2,3 C -2,3 C 29,0 km/h (5 Bft) 96,00 %
10.03.2017 05:10 5,6 C 80 % 1018,8 hPa 0,0 l/m 16,1 km/h (3 Bft) W 265 0 min 0,000 mm 0,0 UV-I 0 W/m 2,4 C -0,7 C 27,4 km/h (4 Bft) 97,73 %
10.03.2017 05:12 5,5 C 80 % 1018,7 hPa 0,0 l/m 12,8 km/h (3 Bft) W 270 0 min 0,000 mm 0,0 UV-I 0 W/m 2,3 C 0,9 C 24,1 km/h (4 Bft) 100,00 %
10.03.2017 05:14 5,5 C 80 % 1018,8 hPa 0,0 l/m 21,4 km/h (4 Bft) W-SW 251 0 min 0,000 mm 0,0 UV-I 0 W/m 2,3 C -3,1 C 33,8 km/h (5 Bft) 92,68 %
10.03.2017 05:16 5,5 C 79 % 1018,8 hPa 0,0 l/m 20,4 km/h (4 Bft) W 276 0 min 0,000 mm 0,0 UV-I 0 W/m 2,2 C -2,7 C 37,0 km/h (5 Bft) 100,00 %
10.03.2017 05:18 5,5 C 80 % 1018,8 hPa 0,0 l/m 15,8 km/h (3 Bft) W 270 0 min 0,000 mm 0,0 UV-I 0 W/m 2,3 C -0,7 C 24,1 km/h (4 Bft) 97,37 %
10.03.2017 05:20 5,5 C 79 % 1018,9 hPa 0,0 l/m 16,9 km/h (3 Bft) NW 306 0 min 0,000 mm 0,0 UV-I 0 W/m 2,2 C -1,2 C 25,7 km/h (4 Bft) 97,87 %
10.03.2017 05:22 5,5 C 79 % 1018,9 hPa 0,0 l/m 21,1 km/h (4 Bft) W 278 0 min 0,000 mm 0,0 UV-I 0 W/m 2,2 C -2,9 C 35,4 km/h (5 Bft) 100,00 %
10.03.2017 05:24 5,6 C 79 % 1018,8 hPa 0,0 l/m 16,1 km/h (3 Bft) W 281 0 min 0,000 mm 0,0 UV-I 0 W/m 2,3 C -0,7 C 27,4 km/h (4 Bft) 97,56 %
10.03.2017 05:26 5,6 C 79 % 1018,9 hPa 0,0 l/m 17,8 km/h (3 Bft) W 268 0 min 0,000 mm 0,0 UV-I 0 W/m 2,3 C -1,5 C 25,7 km/h (4 Bft) 97,56 %
10.03.2017 05:28 5,6 C 79 % 1018,8 hPa 0,0 l/m 15,2 km/h (3 Bft) W-SW 250 0 min 0,000 mm 0,0 UV-I 0 W/m 2,3 C -0,3 C 24,1 km/h (4 Bft) 98,46 %
10.03.2017 05:30 5,6 C 79 % 1018,9 hPa 0,0 l/m 18,2 km/h (3 Bft) W-NW 293 0 min 0,000 mm 0,0 UV-I 0 W/m 2,3 C -1,7 C 30,6 km/h (5 Bft) 100,00 %
10.03.2017 05:32 5,6 C 79 % 1018,9 hPa 0,0 l/m 21,5 km/h (4 Bft) W-SW 251 0 min 0,000 mm 0,0 UV-I 0 W/m 2,3 C -3,0 C 41,8 km/h (6 Bft) 94,74 %
10.03.2017 05:34 5,6 C 79 % 1018,9 hPa 0,0 l/m 16,7 km/h (3 Bft) W-NW 300 0 min 0,000 mm 0,0 UV-I 0 W/m 2,3 C -1,0 C 32,2 km/h (5 Bft) 98,31 %
10.03.2017 05:36 5,6 C 80 % 1018,9 hPa 0,0 l/m 16,6 km/h (3 Bft) W 259 0 min 0,000 mm 0,0 UV-I 0 W/m 2,4 C -1,0 C 25,7 km/h (4 Bft) 97,37 %
10.03.2017 05:38 5,5 C 80 % 1019,0 hPa 0,0 l/m 11,4 km/h (2 Bft) W-NW 289 0 min 0,000 mm 0,0 UV-I 0 W/m 2,3 C 1,7 C 24,1 km/h (4 Bft) 98,11 %
10.03.2017 05:40 5,5 C 80 % 1019,0 hPa 0,0 l/m 11,8 km/h (2 Bft) W 271 0 min 0,000 mm 0,0 UV-I 0 W/m 2,3 C 1,5 C 29,0 km/h (5 Bft) 100,00 %
10.03.2017 05:42 5,5 C 80 % 1019,2 hPa 0,0 l/m 13,7 km/h (3 Bft) W 277 0 min 0,000 mm 0,0 UV-I 0 W/m 2,3 C 0,4 C 27,4 km/h (4 Bft) 96,23 %
10.03.2017 05:44 5,5 C 80 % 1019,3 hPa 0,0 l/m 13,1 km/h (3 Bft) W 259 0 min 0,000 mm 0,0 UV-I 0 W/m 2,3 C 0,7 C 19,3 km/h (3 Bft) 100,00 %
10.03.2017 05:46 5,5 C 81 % 1019,2 hPa 0,0 l/m 11,1 km/h (2 Bft) W 265 0 min 0,000 mm 0,0 UV-I 0 W/m 2,5 C 1,9 C 16,1 km/h (3 Bft) 98,00 %
10.03.2017 05:48 5,5 C 81 % 1019,3 hPa 0,0 l/m 16,4 km/h (3 Bft) W 278 0 min 0,000 mm 0,0 UV-I 0 W/m 2,5 C -1,0 C 27,4 km/h (4 Bft) 96,23 %
10.03.2017 05:50 5,6 C 81 % 1019,3 hPa 0,0 l/m 12,0 km/h (2 Bft) W 263 0 min 0,000 mm 0,0 UV-I 0 W/m 2,6 C 1,4 C 25,7 km/h (4 Bft) 97,87 %
10.03.2017 05:52 5,6 C 81 % 1019,3 hPa 0,0 l/m 12,6 km/h (3 Bft) W-NW 290 0 min 0,000 mm 0,0 UV-I 0 W/m 2,6 C 1,1 C 17,7 km/h (3 Bft) 94,00 %
10.03.2017 05:54 5,6 C 81 % 1019,3 hPa 0,0 l/m 12,6 km/h (3 Bft) W-SW 248 0 min 0,000 mm 0,0 UV-I 0 W/m 2,6 C 1,1 C 22,5 km/h (4 Bft) 97,56 %
10.03.2017 05:56 5,6 C 81 % 1019,3 hPa 0,0 l/m 12,6 km/h (3 Bft) W 259 0 min 0,000 mm 0,0 UV-I 0 W/m 2,6 C 1,1 C 20,9 km/h (4 Bft) 92,68 %
10.03.2017 05:58 5,6 C 81 % 1019,3 hPa 0,0 l/m 17,6 km/h (3 Bft) W 259 0 min 0,000 mm 0,0 UV-I 0 W/m 2,6 C -1,4 C 25,7 km/h (4 Bft) 95,38 %
10.03.2017 06:00 5,6 C 81 % 1019,3 hPa 0,0 l/m 14,5 km/h (3 Bft) SW 236 0 min 0,026 mm 0,0 UV-I 0 W/m 2,6 C 0,1 C 22,5 km/h (4 Bft) 97,87 %
10.03.2017 06:02 5,6 C 81 % 1019,2 hPa 0,0 l/m 18,1 km/h (3 Bft) W-SW 252 0 min 0,000 mm 0,0 UV-I 0 W/m 2,6 C -1,6 C 32,2 km/h (5 Bft) 94,44 %
10.03.2017 06:04 5,5 C 82 % 1019,3 hPa 0,0 l/m 18,7 km/h (3 Bft) W-SW 240 0 min 0,000 mm 0,0 UV-I 0 W/m 2,7 C -2,0 C 27,4 km/h (4 Bft) 97,87 %
10.03.2017 06:06 5,5 C 82 % 1019,2 hPa 0,0 l/m 17,8 km/h (3 Bft) W-NW 294 0 min 0,000 mm 0,0 UV-I 0 W/m 2,7 C -1,6 C 30,6 km/h (5 Bft) 93,62 %
10.03.2017 06:08 5,5 C 82 % 1019,4 hPa 0,0 l/m 17,8 km/h (3 Bft) W 275 0 min 0,000 mm 0,0 UV-I 0 W/m 2,7 C -1,6 C 25,7 km/h (4 Bft) 94,23 %
10.03.2017 06:10 5,4 C 82 % 1019,3 hPa 0,0 l/m 16,9 km/h (3 Bft) W 271 0 min 0,000 mm 0,0 UV-I 0 W/m 2,6 C -1,3 C 25,7 km/h (4 Bft) 95,74 %
10.03.2017 06:12 5,4 C 82 % 1019,3 hPa 0,0 l/m 16,6 km/h (3 Bft) W-SW 248 0 min 0,000 mm 0,0 UV-I 0 W/m 2,6 C -1,2 C 24,1 km/h (4 Bft) 92,16 %
10.03.2017 06:14 5,4 C 83 % 1019,2 hPa 0,0 l/m 21,5 km/h (4 Bft) W-SW 242 0 min 0,000 mm 0,0 UV-I 0 W/m 2,7 C -3,2 C 32,2 km/h (5 Bft) 97,87 %
10.03.2017 06:16 5,3 C 83 % 1019,2 hPa 0,0 l/m 23,4 km/h (4 Bft) W 268 0 min 0,000 mm 0,0 UV-I 0 W/m 2,7 C -4,0 C 35,4 km/h (5 Bft) 92,11 %
10.03.2017 06:18 5,3 C 83 % 1019,1 hPa 0,0 l/m 24,9 km/h (4 Bft) W-SW 257 0 min 0,000 mm 0,0 UV-I 0 W/m 2,7 C -4,5 C 37,0 km/h (5 Bft) 95,74 %
10.03.2017 06:20 5,3 C 83 % 1019,1 hPa 0,0 l/m 22,3 km/h (4 Bft) W-SW 242 0 min 0,000 mm 0,0 UV-I 3 W/m 2,7 C -3,6 C 32,2 km/h (5 Bft) 97,87 %
10.03.2017 06:22 5,3 C 83 % 1019,0 hPa 0,0 l/m 22,9 km/h (4 Bft) W-SW 254 0 min 0,000 mm 0,0 UV-I 5 W/m 2,7 C -3,8 C 33,8 km/h (5 Bft) 95,74 %
10.03.2017 06:24 5,3 C 83 % 1019,1 hPa 0,0 l/m 23,9 km/h (4 Bft) W 269 0 min 0,000 mm 0,0 UV-I 5 W/m 2,7 C -4,2 C 30,6 km/h (5 Bft) 96,00 %
10.03.2017 06:26 5,3 C 83 % 1019,3 hPa 0,0 l/m 20,6 km/h (4 Bft) W-SW 246 0 min 0,000 mm 0,0 UV-I 5 W/m 2,7 C -3,0 C 29,0 km/h (5 Bft) 90,00 %
10.03.2017 06:28 5,3 C 83 % 1019,4 hPa 0,0 l/m 22,7 km/h (4 Bft) W 259 0 min 0,000 mm 0,0 UV-I 6 W/m 2,7 C -3,8 C 30,6 km/h (5 Bft) 91,67 %
10.03.2017 06:30 5,2 C 83 % 1019,6 hPa 0,0 l/m 23,9 km/h (4 Bft) W 278 0 min 0,000 mm 0,0 UV-I 7 W/m 2,6 C -4,3 C 33,8 km/h (5 Bft) 91,49 %
10.03.2017 06:32 5,2 C 83 % 1019,5 hPa 0,0 l/m 21,6 km/h (4 Bft) W 269 0 min 0,000 mm 0,0 UV-I 7 W/m 2,6 C -3,5 C 32,2 km/h (5 Bft) 93,62 %
10.03.2017 06:34 5,2 C 83 % 1019,5 hPa 0,0 l/m 23,3 km/h (4 Bft) W 273 0 min 0,000 mm 0,0 UV-I 8 W/m 2,6 C -4,1 C 40,2 km/h (6 Bft) 95,74 %
10.03.2017 06:36 5,2 C 83 % 1019,5 hPa 0,0 l/m 22,2 km/h (4 Bft) W-SW 253 0 min 0,000 mm 0,0 UV-I 9 W/m 2,6 C -3,7 C 30,6 km/h (5 Bft) 91,49 %
10.03.2017 06:38 5,2 C 83 % 1019,5 hPa 0,0 l/m 22,0 km/h (4 Bft) NW 306 2 min 0,000 mm 0,0 UV-I 11 W/m 2,6 C -3,7 C 32,2 km/h (5 Bft) 92,11 %
10.03.2017 06:40 5,2 C 83 % 1019,5 hPa 0,0 l/m 22,2 km/h (4 Bft) W 276 0 min 0,000 mm 0,0 UV-I 12 W/m 2,6 C -3,7 C 30,6 km/h (5 Bft) 85,11 %
10.03.2017 06:42 5,2 C 83 % 1019,5 hPa 0,0 l/m 22,0 km/h (4 Bft) W 277 0 min 0,000 mm 0,0 UV-I 12 W/m 2,6 C -3,7 C 35,4 km/h (5 Bft) 91,49 %
10.03.2017 06:44 5,2 C 83 % 1019,6 hPa 0,0 l/m 21,6 km/h (4 Bft) W-SW 249 0 min 0,000 mm 0,0 UV-I 12 W/m 2,6 C -3,5 C 35,4 km/h (5 Bft) 95,74 %
10.03.2017 06:46 5,2 C 83 % 1019,6 hPa 0,0 l/m 22,4 km/h (4 Bft) W 271 0 min 0,000 mm 0,0 UV-I 13 W/m 2,6 C -3,8 C 33,8 km/h (5 Bft) 91,49 %
10.03.2017 06:48 5,2 C 83 % 1019,8 hPa 0,0 l/m 23,1 km/h (4 Bft) W-SW 250 0 min 0,000 mm 0,0 UV-I 14 W/m 2,6 C -4,0 C 35,4 km/h (5 Bft) 87,23 %
10.03.2017 06:50 5,2 C 83 % 1019,6 hPa 0,0 l/m 20,3 km/h (4 Bft) W-SW 249 0 min 0,000 mm 0,0 UV-I 16 W/m 2,6 C -3,0 C 37,0 km/h (5 Bft) 91,49 %
10.03.2017 06:52 5,2 C 83 % 1019,6 hPa 0,0 l/m 19,0 km/h (3 Bft) W 259 0 min 0,000 mm 0,0 UV-I 16 W/m 2,6 C -2,5 C 32,2 km/h (5 Bft) 93,62 %
10.03.2017 06:54 5,2 C 82 % 1019,5 hPa 0,0 l/m 20,5 km/h (4 Bft) W 263 0 min 0,000 mm 0,0 UV-I 16 W/m 2,4 C -3,1 C 33,8 km/h (5 Bft) 94,00 %
10.03.2017 06:56 5,2 C 82 % 1019,6 hPa 0,0 l/m 18,1 km/h (3 Bft) W-SW 252 0 min 0,000 mm 0,0 UV-I 16 W/m 2,4 C -2,1 C 35,4 km/h (5 Bft) 91,49 %
10.03.2017 06:58 5,2 C 82 % 1019,5 hPa 0,0 l/m 18,1 km/h (3 Bft) W-SW 251 0 min 0,000 mm 0,0 UV-I 16 W/m 2,4 C -2,1 C 24,1 km/h (4 Bft) 90,38 %
10.03.2017 07:00 5,1 C 82 % 1019,6 hPa 0,0 l/m 15,2 km/h (3 Bft) W-SW 245 0 min 0,025 mm 0,0 UV-I 16 W/m 2,3 C -0,9 C 22,5 km/h (4 Bft) 94,74 %
10.03.2017 07:02 5,1 C 82 % 1019,6 hPa 0,0 l/m 19,0 km/h (3 Bft) W 259 0 min 0,000 mm 0,0 UV-I 16 W/m 2,3 C -2,6 C 32,2 km/h (5 Bft) 89,58 %
10.03.2017 07:04 5,1 C 82 % 1019,6 hPa 0,0 l/m 18,3 km/h (3 Bft) W-SW 255 0 min 0,000 mm 0,0 UV-I 18 W/m 2,3 C -2,3 C 32,2 km/h (5 Bft) 97,87 %
10.03.2017 07:06 5,1 C 82 % 1019,6 hPa 0,0 l/m 16,6 km/h (3 Bft) W 269 0 min 0,000 mm 0,0 UV-I 26 W/m 2,3 C -1,6 C 22,5 km/h (4 Bft) 95,74 %
10.03.2017 07:08 5,1 C 82 % 1019,7 hPa 0,0 l/m 21,8 km/h (4 Bft) W 273 0 min 0,000 mm 0,0 UV-I 41 W/m 2,3 C -3,7 C 29,0 km/h (5 Bft) 98,00 %
10.03.2017 07:10 5,1 C 81 % 1019,7 hPa 0,0 l/m 22,9 km/h (4 Bft) W 263 0 min 0,000 mm 0,0 UV-I 43 W/m 2,1 C -4,1 C 35,4 km/h (5 Bft) 91,49 %
10.03.2017 07:12 5,2 C 82 % 1019,7 hPa 0,0 l/m 19,8 km/h (3 Bft) W-SW 257 0 min 0,000 mm 0,0 UV-I 37 W/m 2,4 C -2,8 C 29,0 km/h (5 Bft) 90,91 %
10.03.2017 07:14 5,2 C 81 % 1019,7 hPa 0,0 l/m 22,5 km/h (4 Bft) N 11 0 min 0,000 mm 0,0 UV-I 30 W/m 2,2 C -3,8 C 38,6 km/h (5 Bft) 96,00 %
10.03.2017 07:16 5,2 C 81 % 1019,7 hPa 0,0 l/m 15,4 km/h (3 Bft) SW 231 0 min 0,000 mm 0,0 UV-I 26 W/m 2,2 C -0,9 C 27,4 km/h (4 Bft) 96,00 %
10.03.2017 07:18 5,2 C 81 % 1019,7 hPa 0,0 l/m 20,2 km/h (4 Bft) W 281 0 min 0,000 mm 0,0 UV-I 26 W/m 2,2 C -3,0 C 32,2 km/h (5 Bft) 95,74 %
10.03.2017 07:20 5,3 C 81 % 1019,7 hPa 0,0 l/m 14,5 km/h (3 Bft) W 260 0 min 0,000 mm 0,0 UV-I 26 W/m 2,3 C -0,3 C 22,5 km/h (4 Bft) 97,87 %
10.03.2017 07:22 5,3 C 81 % 1019,8 hPa 0,0 l/m 23,0 km/h (4 Bft) W-SW 242 0 min 0,000 mm 0,0 UV-I 30 W/m 2,3 C -3,9 C 38,6 km/h (5 Bft) 100,00 %
10.03.2017 07:24 5,3 C 81 % 1019,8 hPa 0,0 l/m 19,4 km/h (3 Bft) W-SW 252 0 min 0,000 mm 0,0 UV-I 29 W/m 2,3 C -2,5 C 29,0 km/h (5 Bft) 97,87 %
10.03.2017 07:26 5,3 C 81 % 1019,9 hPa 0,0 l/m 19,5 km/h (3 Bft) W 262 0 min 0,000 mm 0,0 UV-I 26 W/m 2,3 C -2,6 C 33,8 km/h (5 Bft) 100,00 %
10.03.2017 07:28 5,3 C 81 % 1020,0 hPa 0,0 l/m 22,3 km/h (4 Bft) W 267 0 min 0,000 mm 0,0 UV-I 26 W/m 2,3 C -3,6 C 46,7 km/h (6 Bft) 97,87 %
10.03.2017 07:30 5,3 C 81 % 1020,0 hPa 0,0 l/m 17,4 km/h (3 Bft) SW 227 0 min 0,000 mm 0,0 UV-I 29 W/m 2,3 C -1,7 C 30,6 km/h (5 Bft) 100,00 %
10.03.2017 07:32 5,3 C 81 % 1020,1 hPa 0,0 l/m 18,5 km/h (3 Bft) W 265 0 min 0,000 mm 0,0 UV-I 32 W/m 2,3 C -2,2 C 30,6 km/h (5 Bft) 97,87 %
10.03.2017 07:34 5,3 C 81 % 1020,0 hPa 0,0 l/m 13,5 km/h (3 Bft) W-NW 288 0 min 0,000 mm 0,0 UV-I 26 W/m 2,3 C 0,2 C 24,1 km/h (4 Bft) 94,29 %
10.03.2017 07:36 5,3 C 81 % 1019,9 hPa 0,0 l/m 14,9 km/h (3 Bft) W-SW 248 0 min 0,000 mm 0,0 UV-I 26 W/m 2,3 C -0,5 C 24,1 km/h (4 Bft) 100,00 %
10.03.2017 07:38 5,2 C 82 % 1020,1 hPa 0,0 l/m 18,7 km/h (3 Bft) W-SW 258 0 min 0,000 mm 0,0 UV-I 38 W/m 2,4 C -2,4 C 33,8 km/h (5 Bft) 95,74 %
10.03.2017 07:40 5,2 C 82 % 1020,0 hPa 0,0 l/m 23,5 km/h (4 Bft) W 275 0 min 0,000 mm 0,0 UV-I 52 W/m 2,4 C -4,2 C 33,8 km/h (5 Bft) 94,00 %
10.03.2017 07:42 5,2 C 83 % 1020,1 hPa 0,0 l/m 16,7 km/h (3 Bft) W 274 0 min 0,000 mm 0,0 UV-I 53 W/m 2,6 C -1,5 C 27,4 km/h (4 Bft) 100,00 %
10.03.2017 07:44 5,2 C 83 % 1020,1 hPa 0,0 l/m 18,9 km/h (3 Bft) NW 326 0 min 0,000 mm 0,0 UV-I 35 W/m 2,6 C -2,5 C 27,4 km/h (4 Bft) 97,87 %
10.03.2017 07:46 5,2 C 83 % 1020,1 hPa 0,0 l/m 18,8 km/h (3 Bft) W 264 0 min 0,000 mm 0,0 UV-I 33 W/m 2,6 C -2,4 C 30,6 km/h (5 Bft) 96,00 %
10.03.2017 07:48 5,2 C 83 % 1020,2 hPa 0,0 l/m 20,7 km/h (4 Bft) W 263 0 min 0,000 mm 0,0 UV-I 31 W/m 2,6 C -3,2 C 30,6 km/h (5 Bft) 97,87 %
10.03.2017 07:50 5,1 C 84 % 1020,1 hPa 0,0 l/m 21,5 km/h (4 Bft) W-SW 253 0 min 0,000 mm 0,0 UV-I 35 W/m 2,6 C -3,6 C 32,2 km/h (5 Bft) 97,44 %
10.03.2017 07:52 5,1 C 83 % 1020,1 hPa 0,0 l/m 18,7 km/h (3 Bft) SW 234 0 min 0,000 mm 0,0 UV-I 48 W/m 2,5 C -2,5 C 29,0 km/h (5 Bft) 97,87 %
10.03.2017 07:54 5,1 C 84 % 1020,1 hPa 0,0 l/m 20,5 km/h (4 Bft) N-NW 327 0 min 0,000 mm 0,0 UV-I 57 W/m 2,6 C -3,2 C 38,6 km/h (5 Bft) 93,62 %
10.03.2017 07:56 5,1 C 84 % 1020,1 hPa 0,0 l/m 20,5 km/h (4 Bft) W 265 0 min 0,000 mm 0,0 UV-I 66 W/m 2,6 C -3,2 C 35,4 km/h (5 Bft) 96,00 %
10.03.2017 07:58 5,2 C 84 % 1020,2 hPa 0,0 l/m 16,1 km/h (3 Bft) W 274 0 min 0,000 mm 0,0 UV-I 78 W/m 2,7 C -1,2 C 27,4 km/h (4 Bft) 100,00 %
10.03.2017 08:00 5,2 C 83 % 1020,2 hPa 0,0 l/m 17,1 km/h (3 Bft) W-SW 250 0 min 0,051 mm 0,0 UV-I 78 W/m 2,6 C -1,7 C 29,0 km/h (5 Bft) 97,87 %
10.03.2017 08:02 5,2 C 83 % 1020,1 hPa 0,0 l/m 15,1 km/h (3 Bft) W-NW 285 0 min 0,000 mm 0,0 UV-I 77 W/m 2,6 C -0,7 C 24,1 km/h (4 Bft) 100,00 %
10.03.2017 08:04 5,3 C 83 % 1020,1 hPa 0,0 l/m 16,5 km/h (3 Bft) W-SW 242 0 min 0,000 mm 0,0 UV-I 82 W/m 2,7 C -1,3 C 25,7 km/h (4 Bft) 96,00 %
10.03.2017 08:06 5,3 C 83 % 1020,1 hPa 0,0 l/m 16,2 km/h (3 Bft) W 272 0 min 0,000 mm 0,0 UV-I 100 W/m 2,7 C -1,1 C 22,5 km/h (4 Bft) 97,87 %
10.03.2017 08:08 5,3 C 83 % 1020,1 hPa 0,0 l/m 18,6 km/h (3 Bft) W-SW 256 0 min 0,000 mm 0,0 UV-I 118 W/m 2,7 C -2,2 C 33,8 km/h (5 Bft) 93,62 %
10.03.2017 08:10 5,4 C 82 % 1020,2 hPa 0,0 l/m 20,9 km/h (4 Bft) W 275 0 min 0,000 mm 0,0 UV-I 113 W/m 2,6 C -3,0 C 32,2 km/h (5 Bft) 97,37 %
10.03.2017 08:12 5,4 C 82 % 1020,1 hPa 0,0 l/m 23,9 km/h (4 Bft) W 277 0 min 0,000 mm 0,0 UV-I 106 W/m 2,6 C -4,0 C 33,8 km/h (5 Bft) 97,87 %
10.03.2017 08:14 5,5 C 81 % 1020,4 hPa 0,0 l/m 22,9 km/h (4 Bft) W 262 0 min 0,000 mm 0,0 UV-I 117 W/m 2,5 C -3,6 C 40,2 km/h (6 Bft) 100,00 %
10.03.2017 08:16 5,6 C 81 % 1020,3 hPa 0,0 l/m 24,3 km/h (4 Bft) W-NW 286 0 min 0,000 mm 0,0 UV-I 61 W/m 2,6 C -3,9 C 37,0 km/h (5 Bft) 97,87 %
10.03.2017 08:18 5,5 C 82 % 1020,4 hPa 0,0 l/m 19,2 km/h (3 Bft) W 273 0 min 0,000 mm 0,0 UV-I 52 W/m 2,7 C -2,2 C 32,2 km/h (5 Bft) 100,00 %
10.03.2017 08:20 5,4 C 82 % 1020,4 hPa 0,0 l/m 16,1 km/h (3 Bft) W 271 0 min 0,000 mm 0,0 UV-I 43 W/m 2,6 C -1,0 C 27,4 km/h (4 Bft) 98,00 %
10.03.2017 08:22 5,4 C 83 % 1020,4 hPa 0,0 l/m 21,0 km/h (4 Bft) W-NW 285 0 min 0,000 mm 0,0 UV-I 33 W/m 2,7 C -3,0 C 32,2 km/h (5 Bft) 97,62 %
10.03.2017 08:24 5,3 C 83 % 1020,4 hPa 0,0 l/m 18,1 km/h (3 Bft) W 276 0 min 0,000 mm 0,0 UV-I 31 W/m 2,7 C -2,0 C 32,2 km/h (5 Bft) 98,00 %
10.03.2017 08:26 5,3 C 83 % 1020,4 hPa 0,0 l/m 16,5 km/h (3 Bft) W-NW 286 0 min 0,000 mm 0,0 UV-I 28 W/m 2,7 C -1,3 C 25,7 km/h (4 Bft) 97,87 %
10.03.2017 08:28 5,2 C 84 % 1020,5 hPa 0,0 l/m 12,6 km/h (3 Bft) NW 319 0 min 0,000 mm 0,0 UV-I 30 W/m 2,7 C 0,6 C 27,4 km/h (4 Bft) 100,00 %
10.03.2017 08:30 5,2 C 84 % 1020,5 hPa 0,0 l/m 13,3 km/h (3 Bft) W-NW 296 0 min 0,000 mm 0,0 UV-I 27 W/m 2,7 C 0,2 C 19,3 km/h (3 Bft) 97,87 %
10.03.2017 08:32 5,2 C 84 % 1020,6 hPa 0,0 l/m 14,7 km/h (3 Bft) S-SW 210 0 min 0,000 mm 0,0 UV-I 25 W/m 2,7 C -0,5 C 22,5 km/h (4 Bft) 97,87 %
10.03.2017 08:34 5,2 C 84 % 1020,6 hPa 0,0 l/m 11,9 km/h (2 Bft) W 265 0 min 0,000 mm 0,0 UV-I 25 W/m 2,7 C 1,0 C 22,5 km/h (4 Bft) 97,87 %
10.03.2017 08:36 5,2 C 84 % 1020,7 hPa 0,0 l/m 6,4 km/h (2 Bft) W-NW 288 0 min 0,000 mm 0,0 UV-I 20 W/m 2,7 C 5,2 C 16,1 km/h (3 Bft) 95,74 %
10.03.2017 08:38 5,2 C 84 % 1020,7 hPa 0,0 l/m 12,6 km/h (3 Bft) W 266 0 min 0,000 mm 0,0 UV-I 22 W/m 2,7 C 0,6 C 22,5 km/h (4 Bft) 97,37 %
10.03.2017 08:40 5,2 C 84 % 1020,7 hPa 0,0 l/m 11,9 km/h (2 Bft) W-SW 240 0 min 0,000 mm 0,0 UV-I 28 W/m 2,7 C 1,0 C 22,5 km/h (4 Bft) 96,00 %
10.03.2017 08:42 5,2 C 83 % 1020,7 hPa 0,0 l/m 11,8 km/h (2 Bft) W-NW 284 0 min 0,000 mm 0,0 UV-I 34 W/m 2,6 C 1,1 C 27,4 km/h (4 Bft) 95,74 %
10.03.2017 08:44 5,2 C 82 % 1020,8 hPa 0,0 l/m 20,8 km/h (4 Bft) SW 223 0 min 0,000 mm 0,0 UV-I 47 W/m 2,4 C -3,2 C 38,6 km/h (5 Bft) 97,87 %
10.03.2017 08:46 5,3 C 82 % 1020,8 hPa 0,0 l/m 18,2 km/h (3 Bft) W-SW 250 0 min 0,000 mm 0,0 UV-I 58 W/m 2,5 C -2,0 C 35,4 km/h (5 Bft) 97,87 %
10.03.2017 08:48 5,3 C 82 % 1020,8 hPa 0,0 l/m 15,5 km/h (3 Bft) W-NW 293 0 min 0,000 mm 0,0 UV-I 70 W/m 2,5 C -0,8 C 30,6 km/h (5 Bft) 96,00 %
10.03.2017 08:50 5,4 C 82 % 1020,8 hPa 0,0 l/m 20,1 km/h (4 Bft) W-NW 288 0 min 0,000 mm 0,0 UV-I 85 W/m 2,6 C -2,7 C 38,6 km/h (5 Bft) 93,62 %
10.03.2017 08:52 5,4 C 82 % 1020,7 hPa 0,0 l/m 12,4 km/h (3 Bft) W-SW 241 0 min 0,000 mm 0,0 UV-I 124 W/m 2,6 C 1,0 C 29,0 km/h (5 Bft) 97,87 %
10.03.2017 08:54 5,5 C 82 % 1020,9 hPa 0,0 l/m 11,5 km/h (2 Bft) W 265 0 min 0,000 mm 0,0 UV-I 110 W/m 2,7 C 1,6 C 16,1 km/h (3 Bft) 94,23 %
10.03.2017 08:56 5,5 C 82 % 1020,9 hPa 0,0 l/m 16,5 km/h (3 Bft) W-SW 253 0 min 0,000 mm 0,0 UV-I 95 W/m 2,7 C -1,0 C 33,8 km/h (5 Bft) 97,87 %
10.03.2017 08:58 5,6 C 82 % 1020,9 hPa 0,0 l/m 17,7 km/h (3 Bft) W-SW 248 0 min 0,000 mm 0,0 UV-I 106 W/m 2,8 C -1,5 C 30,6 km/h (5 Bft) 94,44 %
10.03.2017 09:00 5,6 C 81 % 1020,9 hPa 0,0 l/m 18,7 km/h (3 Bft) W 281 0 min 0,051 mm 0,0 UV-I 86 W/m 2,6 C -1,9 C 29,0 km/h (5 Bft) 95,83 %
10.03.2017 09:02 5,6 C 81 % 1020,9 hPa 0,0 l/m 25,3 km/h (4 Bft) W-NW 289 0 min 0,000 mm 0,0 UV-I 80 W/m 2,6 C -4,2 C 45,1 km/h (6 Bft) 93,62 %
10.03.2017 09:04 5,5 C 81 % 1020,8 hPa 0,0 l/m 22,7 km/h (4 Bft) W 281 0 min 0,000 mm 0,0 UV-I 106 W/m 2,5 C -3,5 C 43,5 km/h (6 Bft) 96,00 %
10.03.2017 09:06 5,5 C 82 % 1020,9 hPa 0,0 l/m 18,6 km/h (3 Bft) W 267 0 min 0,000 mm 0,0 UV-I 123 W/m 2,7 C -2,0 C 29,0 km/h (5 Bft) 100,00 %
10.03.2017 09:08 5,4 C 82 % 1020,8 hPa 0,0 l/m 20,6 km/h (4 Bft) W 279 0 min 0,000 mm 0,0 UV-I 123 W/m 2,6 C -2,9 C 32,2 km/h (5 Bft) 95,74 %
10.03.2017 09:10 5,4 C 82 % 1020,8 hPa 0,0 l/m 18,0 km/h (3 Bft) W-SW 245 0 min 0,000 mm 0,0 UV-I 133 W/m 2,6 C -1,8 C 40,2 km/h (6 Bft) 100,00 %
10.03.2017 09:12 5,4 C 82 % 1020,8 hPa 0,0 l/m 21,4 km/h (4 Bft) W 277 0 min 0,000 mm 0,0 UV-I 154 W/m 2,6 C -3,2 C 38,6 km/h (5 Bft) 95,74 %
10.03.2017 09:14 5,5 C 82 % 1020,9 hPa 0,0 l/m 19,2 km/h (3 Bft) W 279 0 min 0,000 mm 0,4 UV-I 173 W/m 2,7 C -2,2 C 40,2 km/h (6 Bft) 97,87 %
10.03.2017 09:16 5,6 C 82 % 1020,8 hPa 0,0 l/m 28,7 km/h (4 Bft) W 261 0 min 0,000 mm 0,5 UV-I 180 W/m 2,8 C -5,2 C 51,5 km/h (7 Bft) 100,00 %
10.03.2017 09:18 5,6 C 81 % 1020,8 hPa 0,0 l/m 23,6 km/h (4 Bft) W 259 0 min 0,000 mm 0,5 UV-I 194 W/m 2,6 C -3,7 C 43,5 km/h (6 Bft) 95,74 %
10.03.2017 09:20 5,7 C 82 % 1020,8 hPa 0,0 l/m 17,4 km/h (3 Bft) W 276 0 min 0,000 mm 0,3 UV-I 181 W/m 2,9 C -1,2 C 27,4 km/h (4 Bft) 93,62 %
10.03.2017 09:22 5,7 C 81 % 1020,9 hPa 0,0 l/m 27,8 km/h (4 Bft) W-SW 252 0 min 0,000 mm 0,0 UV-I 162 W/m 2,7 C -4,8 C 43,5 km/h (6 Bft) 95,74 %
10.03.2017 09:24 5,7 C 81 % 1020,8 hPa 0,0 l/m 24,6 km/h (4 Bft) W 274 0 min 0,000 mm 0,0 UV-I 137 W/m 2,7 C -3,9 C 46,7 km/h (6 Bft) 100,00 %
10.03.2017 09:26 5,7 C 81 % 1021,0 hPa 0,0 l/m 19,9 km/h (4 Bft) W-SW 240 0 min 0,000 mm 0,2 UV-I 152 W/m 2,7 C -2,2 C 30,6 km/h (5 Bft) 97,87 %
10.03.2017 09:28 5,6 C 81 % 1021,1 hPa 0,0 l/m 13,7 km/h (3 Bft) SW 230 0 min 0,000 mm 0,2 UV-I 140 W/m 2,6 C 0,5 C 22,5 km/h (4 Bft) 100,00 %
10.03.2017 09:30 5,6 C 82 % 1021,1 hPa 0,0 l/m 17,0 km/h (3 Bft) W 272 0 min 0,000 mm 0,0 UV-I 106 W/m 2,8 C -1,1 C 32,2 km/h (5 Bft) 95,74 %
10.03.2017 09:32 5,6 C 82 % 1021,1 hPa 0,0 l/m 18,6 km/h (3 Bft) W 268 0 min 0,000 mm 0,0 UV-I 92 W/m 2,8 C -1,8 C 35,4 km/h (5 Bft) 95,74 %
10.03.2017 09:34 5,6 C 82 % 1021,2 hPa 0,0 l/m 10,9 km/h (2 Bft) W 267 0 min 0,000 mm 0,0 UV-I 104 W/m 2,8 C 2,1 C 24,1 km/h (4 Bft) 95,74 %
10.03.2017 09:36 5,6 C 82 % 1021,1 hPa 0,0 l/m 15,8 km/h (3 Bft) W-NW 290 0 min 0,000 mm 0,0 UV-I 117 W/m 2,8 C -0,6 C 27,4 km/h (4 Bft) 95,74 %
10.03.2017 09:38 5,6 C 82 % 1021,2 hPa 0,0 l/m 16,3 km/h (3 Bft) W 281 0 min 0,000 mm 0,0 UV-I 89 W/m 2,8 C -0,8 C 24,1 km/h (4 Bft) 100,00 %
10.03.2017 09:40 5,6 C 81 % 1021,1 hPa 0,0 l/m 14,1 km/h (3 Bft) W-NW 288 0 min 0,000 mm 0,0 UV-I 117 W/m 2,6 C 0,3 C 29,0 km/h (5 Bft) 98,44 %
10.03.2017 09:42 5,6 C 81 % 1021,1 hPa 0,0 l/m 13,7 km/h (3 Bft) W-SW 250 0 min 0,000 mm 0,0 UV-I 76 W/m 2,6 C 0,5 C 30,6 km/h (5 Bft) 97,87 %
10.03.2017 09:44 5,7 C 81 % 1021,3 hPa 0,0 l/m 14,3 km/h (3 Bft) W-NW 284 0 min 0,000 mm 0,0 UV-I 71 W/m 2,7 C 0,3 C 25,7 km/h (4 Bft) 100,00 %
10.03.2017 09:46 5,6 C 80 % 1021,3 hPa 0,0 l/m 22,1 km/h (4 Bft) W 261 0 min 0,000 mm 0,0 UV-I 57 W/m 2,4 C -3,2 C 38,6 km/h (5 Bft) 97,87 %
10.03.2017 09:48 5,6 C 80 % 1021,4 hPa 0,0 l/m 16,5 km/h (3 Bft) W-NW 285 0 min 0,000 mm 0,0 UV-I 60 W/m 2,4 C -0,9 C 37,0 km/h (5 Bft) 97,87 %
10.03.2017 09:50 5,6 C 80 % 1021,4 hPa 0,0 l/m 14,9 km/h (3 Bft) W 259 0 min 0,000 mm 0,0 UV-I 64 W/m 2,4 C -0,1 C 30,6 km/h (5 Bft) 97,87 %
10.03.2017 09:52 5,6 C 80 % 1021,4 hPa 0,0 l/m 17,1 km/h (3 Bft) W 266 0 min 0,000 mm 0,0 UV-I 78 W/m 2,4 C -1,2 C 35,4 km/h (5 Bft) 95,83 %
10.03.2017 09:54 5,6 C 81 % 1021,4 hPa 0,0 l/m 14,1 km/h (3 Bft) W-NW 282 0 min 0,000 mm 0,1 UV-I 127 W/m 2,6 C 0,3 C 25,7 km/h (4 Bft) 98,00 %
10.03.2017 09:56 5,6 C 81 % 1021,4 hPa 0,0 l/m 15,9 km/h (3 Bft) W 264 0 min 0,000 mm 0,6 UV-I 183 W/m 2,6 C -0,6 C 24,1 km/h (4 Bft) 94,74 %
10.03.2017 09:58 5,7 C 81 % 1021,4 hPa 0,0 l/m 12,2 km/h (2 Bft) W-NW 285 0 min 0,000 mm 0,6 UV-I 169 W/m 2,7 C 1,4 C 27,4 km/h (4 Bft) 100,00 %
10.03.2017 10:00 5,7 C 81 % 1021,5 hPa 0,0 l/m 11,4 km/h (2 Bft) W-SW 258 0 min 0,076 mm 0,2 UV-I 130 W/m 2,7 C 1,9 C 22,5 km/h (4 Bft) 100,00 %
10.03.2017 10:02 5,7 C 80 % 1021,4 hPa 0,0 l/m 12,0 km/h (2 Bft) W-NW 285 0 min 0,000 mm 0,0 UV-I 94 W/m 2,5 C 1,6 C 24,1 km/h (4 Bft) 95,74 %
10.03.2017 10:04 5,7 C 80 % 1021,4 hPa 0,0 l/m 15,5 km/h (3 Bft) W-SW 250 0 min 0,000 mm 0,0 UV-I 81 W/m 2,5 C -0,3 C 30,6 km/h (5 Bft) 100,00 %
10.03.2017 10:06 5,7 C 80 % 1021,5 hPa 0,0 l/m 12,4 km/h (3 Bft) NW 305 0 min 0,000 mm 0,0 UV-I 54 W/m 2,5 C 1,3 C 25,7 km/h (4 Bft) 97,87 %
10.03.2017 10:08 5,7 C 80 % 1021,6 hPa 0,0 l/m 10,2 km/h (2 Bft) W 261 0 min 0,000 mm 0,0 UV-I 37 W/m 2,5 C 2,7 C 24,1 km/h (4 Bft) 97,87 %
10.03.2017 10:10 5,6 C 80 % 1021,7 hPa 0,0 l/m 18,3 km/h (3 Bft) W-SW 238 0 min 0,000 mm 0,0 UV-I 42 W/m 2,4 C -1,7 C 33,8 km/h (5 Bft) 98,11 %
10.03.2017 10:12 5,5 C 81 % 1021,6 hPa 0,0 l/m 14,5 km/h (3 Bft) W-SW 257 0 min 0,000 mm 0,0 UV-I 59 W/m 2,5 C -0,1 C 25,7 km/h (4 Bft) 93,62 %
10.03.2017 10:14 5,4 C 80 % 1021,7 hPa 0,0 l/m 17,0 km/h (3 Bft) W-NW 290 0 min 0,000 mm 0,0 UV-I 74 W/m 2,2 C -1,4 C 37,0 km/h (5 Bft) 100,00 %
10.03.2017 10:16 5,4 C 81 % 1021,7 hPa 0,0 l/m 10,1 km/h (2 Bft) W 277 0 min 0,000 mm 0,0 UV-I 72 W/m 2,4 C 2,4 C 25,7 km/h (4 Bft) 95,74 %
10.03.2017 10:18 5,4 C 82 % 1021,7 hPa 0,0 l/m 16,3 km/h (3 Bft) W-SW 242 0 min 0,000 mm 0,0 UV-I 89 W/m 2,6 C -1,1 C 33,8 km/h (5 Bft) 97,87 %
10.03.2017 10:20 5,3 C 82 % 1021,6 hPa 0,0 l/m 14,7 km/h (3 Bft) W 265 0 min 0,000 mm 0,2 UV-I 131 W/m 2,5 C -0,4 C 22,5 km/h (4 Bft) 95,74 %
10.03.2017 10:22 5,3 C 82 % 1021,5 hPa 0,0 l/m 17,3 km/h (3 Bft) W 263 0 min 0,000 mm 0,6 UV-I 165 W/m 2,5 C -1,7 C 25,7 km/h (4 Bft) 94,87 %
10.03.2017 10:24 5,3 C 83 % 1021,5 hPa 0,0 l/m 17,6 km/h (3 Bft) W-NW 288 0 min 0,000 mm 0,6 UV-I 178 W/m 2,7 C -1,8 C 25,7 km/h (4 Bft) 94,00 %
10.03.2017 10:26 5,3 C 83 % 1021,3 hPa 0,0 l/m 20,7 km/h (4 Bft) W 259 0 min 0,000 mm 0,5 UV-I 158 W/m 2,7 C -3,1 C 29,0 km/h (5 Bft) 95,74 %
10.03.2017 10:28 5,4 C 82 % 1021,4 hPa 0,0 l/m 23,7 km/h (4 Bft) W-SW 247 0 min 0,000 mm 0,5 UV-I 146 W/m 2,6 C -4,0 C 40,2 km/h (6 Bft) 94,00 %
10.03.2017 10:30 5,4 C 82 % 1021,4 hPa 0,0 l/m 23,1 km/h (4 Bft) W 272 0 min 0,000 mm 0,5 UV-I 146 W/m 2,6 C -3,8 C 37,0 km/h (5 Bft) 93,62 %
10.03.2017 10:32 5,4 C 82 % 1021,6 hPa 0,0 l/m 20,6 km/h (4 Bft) W 265 0 min 0,000 mm 0,5 UV-I 146 W/m 2,6 C -2,9 C 30,6 km/h (5 Bft) 94,00 %
10.03.2017 10:34 5,4 C 80 % 1021,4 hPa 0,0 l/m 24,3 km/h (4 Bft) W-SW 252 0 min 0,000 mm 0,5 UV-I 147 W/m 2,2 C -4,2 C 38,6 km/h (5 Bft) 95,74 %
10.03.2017 10:36 5,4 C 80 % 1021,5 hPa 0,0 l/m 22,9 km/h (4 Bft) SW 216 0 min 0,000 mm 0,6 UV-I 159 W/m 2,2 C -3,7 C 37,0 km/h (5 Bft) 95,45 %
10.03.2017 10:38 5,5 C 80 % 1021,5 hPa 0,0 l/m 21,9 km/h (4 Bft) W 267 0 min 0,000 mm 0,7 UV-I 187 W/m 2,3 C -3,2 C 38,6 km/h (5 Bft) 92,11 %
10.03.2017 10:40 5,5 C 79 % 1021,5 hPa 0,0 l/m 26,6 km/h (4 Bft) W-SW 257 0 min 0,000 mm 0,8 UV-I 200 W/m 2,2 C -4,7 C 37,0 km/h (5 Bft) 95,74 %
10.03.2017 10:42 5,5 C 78 % 1021,5 hPa 0,0 l/m 24,1 km/h (4 Bft) W-SW 246 0 min 0,000 mm 0,9 UV-I 230 W/m 2,0 C -4,0 C 45,1 km/h (6 Bft) 95,74 %
10.03.2017 10:44 5,6 C 77 % 1021,6 hPa 0,0 l/m 23,7 km/h (4 Bft) W 267 0 min 0,000 mm 0,9 UV-I 254 W/m 1,9 C -3,7 C 37,0 km/h (5 Bft) 95,74 %
10.03.2017 10:46 5,6 C 77 % 1021,6 hPa 0,0 l/m 19,6 km/h (3 Bft) SW 235 0 min 0,000 mm 0,8 UV-I 240 W/m 1,9 C -2,2 C 33,8 km/h (5 Bft) 89,36 %
10.03.2017 10:48 5,6 C 76 % 1021,4 hPa 0,0 l/m 22,7 km/h (4 Bft) W 261 0 min 0,000 mm 0,7 UV-I 204 W/m 1,7 C -3,4 C 32,2 km/h (5 Bft) 91,49 %
10.03.2017 10:50 5,7 C 76 % 1021,6 hPa 0,0 l/m 21,3 km/h (4 Bft) W 271 0 min 0,000 mm 0,6 UV-I 173 W/m 1,8 C -2,8 C 32,2 km/h (5 Bft) 93,62 %
10.03.2017 10:52 5,7 C 76 % 1021,5 hPa 0,0 l/m 18,6 km/h (3 Bft) W-SW 251 0 min 0,000 mm 0,6 UV-I 168 W/m 1,8 C -1,7 C 29,0 km/h (5 Bft) 94,00 %
10.03.2017 10:54 5,7 C 75 % 1021,5 hPa 0,0 l/m 21,0 km/h (4 Bft) W-SW 258 0 min 0,000 mm 0,6 UV-I 164 W/m 1,6 C -2,6 C 30,6 km/h (5 Bft) 89,36 %
10.03.2017 10:56 5,8 C 75 % 1021,5 hPa 0,0 l/m 18,1 km/h (3 Bft) W 273 0 min 0,000 mm 0,6 UV-I 155 W/m 1,7 C -1,4 C 27,4 km/h (4 Bft) 93,62 %
10.03.2017 10:58 5,8 C 75 % 1021,5 hPa 0,0 l/m 17,6 km/h (3 Bft) W-SW 249 0 min 0,000 mm 0,6 UV-I 150 W/m 1,7 C -1,2 C 25,7 km/h (4 Bft) 91,84 %
10.03.2017 11:00 5,8 C 76 % 1021,6 hPa 0,0 l/m 18,0 km/h (3 Bft) SW 229 0 min 0,000 mm 0,5 UV-I 146 W/m 1,9 C -1,3 C 27,4 km/h (4 Bft) 93,62 %
10.03.2017 11:02 5,8 C 75 % 1021,6 hPa 0,0 l/m 19,8 km/h (3 Bft) W-SW 258 0 min 0,101 mm 0,5 UV-I 141 W/m 1,7 C -2,1 C 40,2 km/h (6 Bft) 91,49 %
10.03.2017 11:04 5,8 C 75 % 1021,7 hPa 0,0 l/m 18,5 km/h (3 Bft) W-SW 258 0 min 0,000 mm 0,5 UV-I 138 W/m 1,7 C -1,5 C 27,4 km/h (4 Bft) 93,75 %
10.03.2017 11:06 5,8 C 75 % 1021,7 hPa 0,0 l/m 18,0 km/h (3 Bft) W 263 0 min 0,000 mm 0,5 UV-I 135 W/m 1,7 C -1,3 C 27,4 km/h (4 Bft) 93,62 %
10.03.2017 11:08 5,8 C 75 % 1021,7 hPa 0,0 l/m 18,2 km/h (3 Bft) W 275 0 min 0,000 mm 0,5 UV-I 138 W/m 1,7 C -1,4 C 29,0 km/h (5 Bft) 91,49 %
10.03.2017 11:10 5,8 C 75 % 1021,7 hPa 0,0 l/m 17,0 km/h (3 Bft) SW 236 0 min 0,000 mm 0,6 UV-I 143 W/m 1,7 C -0,9 C 35,4 km/h (5 Bft) 97,87 %
10.03.2017 11:12 5,8 C 75 % 1021,8 hPa 0,0 l/m 26,8 km/h (4 Bft) W-NW 290 0 min 0,000 mm 0,6 UV-I 145 W/m 1,7 C -4,4 C 40,2 km/h (6 Bft) 95,74 %
10.03.2017 11:14 5,8 C 75 % 1021,7 hPa 0,0 l/m 25,8 km/h (4 Bft) W 273 0 min 0,000 mm 0,5 UV-I 139 W/m 1,7 C -4,1 C 45,1 km/h (6 Bft) 85,11 %
10.03.2017 11:16 5,8 C 75 % 1021,7 hPa 0,0 l/m 18,0 km/h (3 Bft) W 281 0 min 0,000 mm 0,5 UV-I 134 W/m 1,7 C -1,3 C 29,0 km/h (5 Bft) 95,74 %
10.03.2017 11:18 5,9 C 75 % 1021,8 hPa 0,0 l/m 11,9 km/h (2 Bft) W 281 0 min 0,000 mm 0,5 UV-I 124 W/m 1,8 C 1,9 C 19,3 km/h (3 Bft) 95,74 %
10.03.2017 11:20 5,9 C 75 % 1021,8 hPa 0,0 l/m 17,8 km/h (3 Bft) W-SW 258 0 min 0,000 mm 0,0 UV-I 114 W/m 1,8 C -1,1 C 25,7 km/h (4 Bft) 89,36 %
10.03.2017 11:22 5,9 C 74 % 1021,9 hPa 0,0 l/m 22,4 km/h (4 Bft) W 279 0 min 0,000 mm 0,0 UV-I 111 W/m 1,6 C -2,9 C 35,4 km/h (5 Bft) 97,37 %
10.03.2017 11:24 5,9 C 74 % 1021,9 hPa 0,0 l/m 21,0 km/h (4 Bft) W-SW 247 0 min 0,000 mm 0,0 UV-I 109 W/m 1,6 C -2,4 C 37,0 km/h (5 Bft) 97,87 %
10.03.2017 11:26 6,0 C 74 % 1022,0 hPa 0,0 l/m 25,8 km/h (4 Bft) W 269 0 min 0,000 mm 0,0 UV-I 101 W/m 1,7 C -3,8 C 38,6 km/h (5 Bft) 89,36 %
10.03.2017 11:28 6,0 C 74 % 1021,9 hPa 0,0 l/m 24,9 km/h (4 Bft) W-SW 253 0 min 0,000 mm 0,0 UV-I 94 W/m 1,7 C -3,6 C 37,0 km/h (5 Bft) 93,62 %
10.03.2017 11:30 6,0 C 74 % 1022,1 hPa 0,0 l/m 19,0 km/h (3 Bft) W-SW 258 0 min 0,000 mm 0,0 UV-I 90 W/m 1,7 C -1,5 C 32,2 km/h (5 Bft) 95,74 %
10.03.2017 11:32 6,1 C 74 % 1022,0 hPa 0,0 l/m 22,5 km/h (4 Bft) W 267 0 min 0,000 mm 0,0 UV-I 93 W/m 1,8 C -2,6 C 46,7 km/h (6 Bft) 95,74 %
10.03.2017 11:34 6,1 C 73 % 1022,1 hPa 0,0 l/m 21,7 km/h (4 Bft) W 259 0 min 0,000 mm 0,0 UV-I 97 W/m 1,6 C -2,4 C 43,5 km/h (6 Bft) 93,62 %
10.03.2017 11:36 6,1 C 73 % 1022,0 hPa 0,0 l/m 19,9 km/h (4 Bft) W-NW 289 0 min 0,000 mm 0,0 UV-I 94 W/m 1,6 C -1,7 C 30,6 km/h (5 Bft) 94,00 %
10.03.2017 11:38 6,1 C 73 % 1022,0 hPa 0,0 l/m 21,7 km/h (4 Bft) NW 320 0 min 0,000 mm 0,0 UV-I 92 W/m 1,6 C -2,4 C 33,8 km/h (5 Bft) 94,00 %
10.03.2017 11:40 6,1 C 72 % 1021,9 hPa 0,0 l/m 20,4 km/h (4 Bft) W 260 0 min 0,000 mm 0,0 UV-I 88 W/m 1,4 C -1,9 C 49,9 km/h (6 Bft) 100,00 %
10.03.2017 11:42 6,1 C 72 % 1022,0 hPa 0,0 l/m 27,8 km/h (4 Bft) W 269 0 min 0,000 mm 0,0 UV-I 89 W/m 1,4 C -4,3 C 48,3 km/h (6 Bft) 97,87 %
10.03.2017 11:44 6,1 C 73 % 1022,1 hPa 0,0 l/m 18,7 km/h (3 Bft) W-NW 286 0 min 0,000 mm 0,0 UV-I 90 W/m 1,6 C -1,2 C 32,2 km/h (5 Bft) 95,74 %
10.03.2017 11:46 6,1 C 73 % 1022,1 hPa 0,0 l/m 16,7 km/h (3 Bft) W-SW 256 0 min 0,000 mm 0,0 UV-I 89 W/m 1,6 C -0,4 C 27,4 km/h (4 Bft) 95,74 %
10.03.2017 11:48 6,1 C 72 % 1022,1 hPa 0,0 l/m 16,3 km/h (3 Bft) W-NW 287 0 min 0,000 mm 0,0 UV-I 89 W/m 1,4 C -0,2 C 30,6 km/h (5 Bft) 96,23 %
10.03.2017 11:50 6,1 C 72 % 1022,1 hPa 0,0 l/m 11,9 km/h (2 Bft) W 277 0 min 0,000 mm 0,0 UV-I 90 W/m 1,4 C 2,1 C 25,7 km/h (4 Bft) 98,00 %
10.03.2017 11:52 6,1 C 72 % 1022,2 hPa 0,0 l/m 16,1 km/h (3 Bft) W-NW 284 0 min 0,000 mm 0,0 UV-I 93 W/m 1,4 C -0,1 C 30,6 km/h (5 Bft) 100,00 %
10.03.2017 11:54 6,1 C 71 % 1022,1 hPa 0,0 l/m 19,4 km/h (3 Bft) NW 307 0 min 0,000 mm 0,0 UV-I 99 W/m 1,2 C -1,5 C 43,5 km/h (6 Bft) 97,87 %
10.03.2017 11:56 6,1 C 71 % 1022,5 hPa 0,0 l/m 20,4 km/h (4 Bft) W 259 0 min 0,000 mm 0,0 UV-I 98 W/m 1,2 C -1,9 C 38,6 km/h (5 Bft) 97,87 %
10.03.2017 11:58 6,1 C 70 % 1022,1 hPa 0,0 l/m 20,3 km/h (4 Bft) W 259 0 min 0,000 mm 0,0 UV-I 96 W/m 1,0 C -1,9 C 38,6 km/h (5 Bft) 97,87 %
10.03.2017 12:00 6,1 C 70 % 1022,2 hPa 0,0 l/m 18,5 km/h (3 Bft) W-NW 285 0 min 0,102 mm 0,0 UV-I 99 W/m 1,0 C -1,2 C 38,6 km/h (5 Bft) 100,00 %
10.03.2017 12:02 6,1 C 70 % 1022,2 hPa 0,0 l/m 18,0 km/h (3 Bft) W-SW 255 0 min 0,000 mm 0,0 UV-I 102 W/m 1,0 C -1,0 C 29,0 km/h (5 Bft) 97,87 %
10.03.2017 12:04 6,1 C 69 % 1022,3 hPa 0,0 l/m 22,2 km/h (4 Bft) W-NW 284 0 min 0,000 mm 0,0 UV-I 99 W/m 0,8 C -2,5 C 40,2 km/h (6 Bft) 91,49 %
10.03.2017 12:06 6,1 C 69 % 1022,3 hPa 0,0 l/m 22,5 km/h (4 Bft) W 265 0 min 0,000 mm 0,0 UV-I 96 W/m 0,8 C -2,6 C 45,1 km/h (6 Bft) 95,74 %
10.03.2017 12:08 6,1 C 68 % 1022,3 hPa 0,0 l/m 17,8 km/h (3 Bft) W 261 0 min 0,000 mm 0,0 UV-I 99 W/m 0,6 C -0,9 C 38,6 km/h (5 Bft) 98,00 %
10.03.2017 12:10 6,1 C 69 % 1022,3 hPa 0,0 l/m 16,8 km/h (3 Bft) W 265 0 min 0,000 mm 0,0 UV-I 95 W/m 0,8 C -0,4 C 30,6 km/h (5 Bft) 97,87 %
10.03.2017 12:12 6,0 C 69 % 1022,3 hPa 0,0 l/m 19,0 km/h (3 Bft) W 269 0 min 0,000 mm 0,0 UV-I 91 W/m 0,8 C -1,5 C 33,8 km/h (5 Bft) 94,00 %
10.03.2017 12:14 6,0 C 69 % 1022,4 hPa 0,0 l/m 17,7 km/h (3 Bft) W 269 0 min 0,000 mm 0,0 UV-I 94 W/m 0,8 C -1,0 C 29,0 km/h (5 Bft) 97,87 %
10.03.2017 12:16 6,0 C 68 % 1022,4 hPa 0,0 l/m 17,0 km/h (3 Bft) W 270 0 min 0,000 mm 0,0 UV-I 93 W/m 0,6 C -0,6 C 37,0 km/h (5 Bft) 100,00 %
10.03.2017 12:18 6,0 C 69 % 1022,4 hPa 0,0 l/m 12,5 km/h (3 Bft) W 280 0 min 0,000 mm 0,0 UV-I 97 W/m 0,8 C 1,6 C 27,4 km/h (4 Bft) 92,31 %
10.03.2017 12:20 6,0 C 69 % 1022,4 hPa 0,0 l/m 14,5 km/h (3 Bft) W-SW 241 0 min 0,000 mm 0,0 UV-I 103 W/m 0,8 C 0,5 C 29,0 km/h (5 Bft) 98,00 %
10.03.2017 12:22 6,0 C 69 % 1022,4 hPa 0,0 l/m 16,4 km/h (3 Bft) W-SW 254 0 min 0,000 mm 0,0 UV-I 105 W/m 0,8 C -0,4 C 25,7 km/h (4 Bft) 100,00 %
10.03.2017 12:24 6,0 C 70 % 1022,4 hPa 0,0 l/m 16,2 km/h (3 Bft) W 275 0 min 0,000 mm 0,0 UV-I 105 W/m 1,0 C -0,3 C 25,7 km/h (4 Bft) 95,83 %
10.03.2017 12:26 6,1 C 69 % 1022,4 hPa 0,0 l/m 15,8 km/h (3 Bft) W-NW 290 0 min 0,000 mm 0,0 UV-I 105 W/m 0,8 C 0,0 C 25,7 km/h (4 Bft) 93,62 %
10.03.2017 12:28 6,1 C 70 % 1022,4 hPa 0,0 l/m 18,4 km/h (3 Bft) W-SW 248 0 min 0,000 mm 0,0 UV-I 103 W/m 1,0 C -1,1 C 30,6 km/h (5 Bft) 97,87 %
10.03.2017 12:30 6,1 C 69 % 1022,4 hPa 0,0 l/m 18,6 km/h (3 Bft) W 265 0 min 0,000 mm 0,0 UV-I 99 W/m 0,8 C -1,2 C 27,4 km/h (4 Bft) 94,00 %
10.03.2017 12:32 6,1 C 68 % 1022,5 hPa 0,0 l/m 20,2 km/h (4 Bft) W 268 0 min 0,000 mm 0,0 UV-I 99 W/m 0,6 C -1,8 C 30,6 km/h (5 Bft) 95,12 %
10.03.2017 12:34 6,1 C 68 % 1022,4 hPa 0,0 l/m 19,6 km/h (3 Bft) W 276 0 min 0,000 mm 0,0 UV-I 106 W/m 0,6 C -1,6 C 29,0 km/h (5 Bft) 91,49 %
10.03.2017 12:36 6,1 C 68 % 1022,4 hPa 0,0 l/m 18,3 km/h (3 Bft) W 281 0 min 0,000 mm 0,3 UV-I 118 W/m 0,6 C -1,1 C 32,2 km/h (5 Bft) 98,00 %
10.03.2017 12:38 6,1 C 68 % 1022,4 hPa 0,0 l/m 18,1 km/h (3 Bft) W 268 0 min 0,000 mm 0,4 UV-I 122 W/m 0,6 C -1,0 C 24,1 km/h (4 Bft) 95,74 %
10.03.2017 12:40 6,1 C 68 % 1022,3 hPa 0,0 l/m 19,3 km/h (3 Bft) W 269 0 min 0,000 mm 0,0 UV-I 113 W/m 0,6 C -1,5 C 30,6 km/h (5 Bft) 97,87 %
10.03.2017 12:42 6,2 C 68 % 1022,4 hPa 0,0 l/m 12,6 km/h (3 Bft) W 277 0 min 0,000 mm 0,0 UV-I 109 W/m 0,7 C 1,8 C 30,6 km/h (5 Bft) 89,74 %
10.03.2017 12:44 6,2 C 68 % 1022,3 hPa 0,0 l/m 13,3 km/h (3 Bft) SW 236 0 min 0,000 mm 0,0 UV-I 110 W/m 0,7 C 1,4 C 30,6 km/h (5 Bft) 96,23 %
10.03.2017 12:46 6,2 C 68 % 1022,4 hPa 0,0 l/m 16,5 km/h (3 Bft) N-NW 336 0 min 0,000 mm 0,0 UV-I 113 W/m 0,7 C -0,2 C 24,1 km/h (4 Bft) 97,87 %
10.03.2017 12:48 6,2 C 68 % 1022,4 hPa 0,0 l/m 20,0 km/h (4 Bft) W-SW 254 0 min 0,000 mm 0,0 UV-I 109 W/m 0,7 C -1,6 C 32,2 km/h (5 Bft) 91,84 %
10.03.2017 12:50 6,2 C 67 % 1022,4 hPa 0,0 l/m 17,3 km/h (3 Bft) W-NW 283 0 min 0,000 mm 0,0 UV-I 103 W/m 0,5 C -0,5 C 29,0 km/h (5 Bft) 97,87 %
10.03.2017 12:52 6,2 C 68 % 1022,4 hPa 0,0 l/m 19,3 km/h (3 Bft) W 279 0 min 0,000 mm 0,0 UV-I 106 W/m 0,7 C -1,4 C 27,4 km/h (4 Bft) 91,67 %
10.03.2017 12:54 6,2 C 67 % 1022,4 hPa 0,0 l/m 21,2 km/h (4 Bft) W 275 0 min 0,000 mm 0,0 UV-I 114 W/m 0,5 C -2,1 C 41,8 km/h (6 Bft) 97,87 %
10.03.2017 12:56 6,2 C 66 % 1022,2 hPa 0,0 l/m 30,4 km/h (5 Bft) W-SW 239 0 min 0,000 mm 0,5 UV-I 131 W/m 0,3 C -4,8 C 41,8 km/h (6 Bft) 96,00 %
10.03.2017 12:58 6,2 C 66 % 1022,2 hPa 0,0 l/m 27,4 km/h (4 Bft) W 268 0 min 0,000 mm 0,6 UV-I 166 W/m 0,3 C -4,0 C 41,8 km/h (6 Bft) 94,44 %
10.03.2017 13:00 6,2 C 66 % 1022,1 hPa 0,0 l/m 27,5 km/h (4 Bft) W 262 0 min 0,102 mm 0,6 UV-I 169 W/m 0,3 C -4,0 C 43,5 km/h (6 Bft) 95,83 %
10.03.2017 13:02 6,2 C 67 % 1022,1 hPa 0,0 l/m 22,9 km/h (4 Bft) W 269 0 min 0,000 mm 0,6 UV-I 178 W/m 0,5 C -2,7 C 41,8 km/h (6 Bft) 92,31 %
10.03.2017 13:04 6,2 C 67 % 1022,1 hPa 0,0 l/m 26,2 km/h (4 Bft) W 259 0 min 0,000 mm 0,7 UV-I 196 W/m 0,5 C -3,7 C 40,2 km/h (6 Bft) 98,00 %
10.03.2017 13:06 6,3 C 67 % 1022,2 hPa 0,0 l/m 18,9 km/h (3 Bft) SW 235 0 min 0,000 mm 0,8 UV-I 212 W/m 0,6 C -1,1 C 32,2 km/h (5 Bft) 98,00 %
10.03.2017 13:08 6,3 C 67 % 1022,1 hPa 0,0 l/m 18,0 km/h (3 Bft) W-NW 283 0 min 0,000 mm 0,7 UV-I 214 W/m 0,6 C -0,7 C 35,4 km/h (5 Bft) 97,96 %
10.03.2017 13:10 6,3 C 67 % 1022,2 hPa 0,0 l/m 19,4 km/h (3 Bft) W 270 0 min 0,000 mm 0,7 UV-I 213 W/m 0,6 C -1,3 C 35,4 km/h (5 Bft) 97,30 %
10.03.2017 13:12 6,4 C 67 % 1022,1 hPa 0,0 l/m 14,2 km/h (3 Bft) SW 235 0 min 0,000 mm 0,7 UV-I 206 W/m 0,7 C 1,2 C 24,1 km/h (4 Bft) 98,00 %
10.03.2017 13:14 6,4 C 67 % 1022,2 hPa 0,0 l/m 14,7 km/h (3 Bft) W-SW 242 0 min 0,000 mm 0,7 UV-I 205 W/m 0,7 C 0,9 C 20,9 km/h (4 Bft) 97,87 %
10.03.2017 13:16 6,4 C 67 % 1022,1 hPa 0,0 l/m 25,9 km/h (4 Bft) W 270 0 min 0,000 mm 0,8 UV-I 220 W/m 0,7 C -3,3 C 53,1 km/h (7 Bft) 100,00 %
10.03.2017 13:18 6,4 C 66 % 1022,1 hPa 0,0 l/m 24,9 km/h (4 Bft) W 264 0 min 0,000 mm 0,8 UV-I 227 W/m 0,5 C -3,0 C 41,8 km/h (6 Bft) 100,00 %
10.03.2017 13:20 6,5 C 65 % 1022,1 hPa 0,0 l/m 22,2 km/h (4 Bft) W 268 0 min 0,000 mm 0,8 UV-I 229 W/m 0,4 C -2,0 C 32,2 km/h (5 Bft) 97,56 %
10.03.2017 13:22 6,5 C 66 % 1022,1 hPa 0,0 l/m 21,6 km/h (4 Bft) W-SW 258 0 min 0,000 mm 0,8 UV-I 218 W/m 0,6 C -1,8 C 49,9 km/h (6 Bft) 97,87 %
10.03.2017 13:24 6,5 C 65 % 1022,1 hPa 0,0 l/m 20,9 km/h (4 Bft) W 277 0 min 0,000 mm 0,6 UV-I 188 W/m 0,4 C -1,6 C 30,6 km/h (5 Bft) 93,62 %
10.03.2017 13:26 6,5 C 66 % 1022,2 hPa 0,0 l/m 12,4 km/h (3 Bft) W 273 0 min 0,000 mm 0,6 UV-I 172 W/m 0,6 C 2,3 C 19,3 km/h (3 Bft) 97,87 %
10.03.2017 13:28 6,5 C 66 % 1022,1 hPa 0,0 l/m 14,1 km/h (3 Bft) W-SW 241 0 min 0,000 mm 0,6 UV-I 176 W/m 0,6 C 1,3 C 22,5 km/h (4 Bft) 100,00 %
10.03.2017 13:30 6,6 C 67 % 1022,0 hPa 0,0 l/m 16,6 km/h (3 Bft) W-SW 238 0 min 0,000 mm 0,7 UV-I 204 W/m 0,9 C 0,3 C 24,1 km/h (4 Bft) 97,87 %
10.03.2017 13:32 6,6 C 66 % 1022,0 hPa 0,0 l/m 18,9 km/h (3 Bft) W 281 0 min 0,000 mm 0,8 UV-I 237 W/m 0,7 C -0,7 C 32,2 km/h (5 Bft) 95,74 %
10.03.2017 13:34 6,7 C 66 % 1021,9 hPa 0,0 l/m 24,0 km/h (4 Bft) NW 314 0 min 0,000 mm 0,9 UV-I 251 W/m 0,8 C -2,3 C 40,2 km/h (6 Bft) 98,00 %
10.03.2017 13:36 6,7 C 66 % 1021,9 hPa 0,0 l/m 13,9 km/h (3 Bft) W-SW 246 0 min 0,000 mm 1,0 UV-I 275 W/m 0,8 C 1,7 C 27,4 km/h (4 Bft) 100,00 %
10.03.2017 13:38 6,8 C 66 % 1022,0 hPa 0,0 l/m 12,7 km/h (3 Bft) W 272 0 min 0,000 mm 1,0 UV-I 292 W/m 0,9 C 2,4 C 20,9 km/h (4 Bft) 100,00 %
10.03.2017 13:40 6,8 C 66 % 1022,0 hPa 0,0 l/m 15,8 km/h (3 Bft) W-SW 258 0 min 0,000 mm 1,0 UV-I 289 W/m 0,9 C 0,9 C 27,4 km/h (4 Bft) 95,74 %
10.03.2017 13:42 6,8 C 65 % 1022,1 hPa 0,0 l/m 19,4 km/h (3 Bft) W 262 0 min 0,000 mm 0,9 UV-I 267 W/m 0,7 C -0,6 C 30,6 km/h (5 Bft) 100,00 %
10.03.2017 13:44 6,9 C 65 % 1022,2 hPa 0,0 l/m 17,6 km/h (3 Bft) W 264 0 min 0,000 mm 0,8 UV-I 246 W/m 0,8 C 0,2 C 37,0 km/h (5 Bft) 95,74 %
10.03.2017 13:46 6,9 C 66 % 1022,2 hPa 0,0 l/m 12,3 km/h (3 Bft) SW 228 0 min 0,000 mm 0,7 UV-I 216 W/m 1,0 C 2,8 C 22,5 km/h (4 Bft) 98,08 %
10.03.2017 13:48 6,9 C 67 % 1022,2 hPa 0,0 l/m 15,8 km/h (3 Bft) W-NW 283 0 min 0,000 mm 0,7 UV-I 218 W/m 1,2 C 1,0 C 33,8 km/h (5 Bft) 100,00 %
10.03.2017 13:50 6,9 C 66 % 1022,2 hPa 0,0 l/m 20,2 km/h (4 Bft) W-SW 249 0 min 0,000 mm 0,7 UV-I 215 W/m 1,0 C -0,8 C 37,0 km/h (5 Bft) 95,74 %
10.03.2017 13:52 6,9 C 65 % 1022,1 hPa 0,0 l/m 20,9 km/h (4 Bft) W-SW 248 0 min 0,000 mm 0,8 UV-I 223 W/m 0,8 C -1,0 C 33,8 km/h (5 Bft) 93,62 %
10.03.2017 13:54 6,9 C 65 % 1022,3 hPa 0,0 l/m 15,4 km/h (3 Bft) N-NO 20 0 min 0,000 mm 0,8 UV-I 230 W/m 0,8 C 1,2 C 24,1 km/h (4 Bft) 100,00 %
10.03.2017 13:56 6,9 C 65 % 1022,3 hPa 0,0 l/m 19,3 km/h (3 Bft) W-NW 287 0 min 0,000 mm 0,7 UV-I 199 W/m 0,8 C -0,5 C 29,0 km/h (5 Bft) 97,96 %
10.03.2017 13:58 6,9 C 66 % 1022,4 hPa 0,0 l/m 19,2 km/h (3 Bft) W 277 0 min 0,000 mm 0,5 UV-I 147 W/m 1,0 C -0,4 C 35,4 km/h (5 Bft) 91,49 %
10.03.2017 14:00 6,9 C 65 % 1022,4 hPa 0,0 l/m 15,1 km/h (3 Bft) W 265 0 min 0,152 mm 0,5 UV-I 141 W/m 0,8 C 1,3 C 30,6 km/h (5 Bft) 100,00 %
10.03.2017 14:02 6,8 C 65 % 1022,4 hPa 0,0 l/m 28,8 km/h (4 Bft) W 274 0 min 0,000 mm 0,5 UV-I 149 W/m 0,7 C -3,5 C 41,8 km/h (6 Bft) 100,00 %
10.03.2017 14:04 6,8 C 65 % 1022,4 hPa 0,0 l/m 22,3 km/h (4 Bft) W-NW 283 0 min 0,000 mm 0,2 UV-I 134 W/m 0,7 C -1,7 C 41,8 km/h (6 Bft) 93,62 %
10.03.2017 14:06 6,8 C 65 % 1022,4 hPa 0,0 l/m 22,8 km/h (4 Bft) W-SW 242 0 min 0,000 mm 0,0 UV-I 114 W/m 0,7 C -1,8 C 33,8 km/h (5 Bft) 93,62 %
10.03.2017 14:08 6,7 C 65 % 1022,5 hPa 0,0 l/m 24,4 km/h (4 Bft) W-SW 247 0 min 0,000 mm 0,0 UV-I 120 W/m 0,6 C -2,5 C 45,1 km/h (6 Bft) 98,00 %
10.03.2017 14:10 6,7 C 66 % 1022,5 hPa 0,0 l/m 18,4 km/h (3 Bft) W-SW 258 0 min 0,000 mm 0,0 UV-I 127 W/m 0,8 C -0,4 C 27,4 km/h (4 Bft) 95,74 %
10.03.2017 14:12 6,7 C 66 % 1022,5 hPa 0,0 l/m 18,0 km/h (3 Bft) W 265 0 min 0,000 mm 0,0 UV-I 125 W/m 0,8 C -0,2 C 30,6 km/h (5 Bft) 93,62 %
10.03.2017 14:14 6,7 C 66 % 1022,4 hPa 0,0 l/m 18,6 km/h (3 Bft) W 280 0 min 0,000 mm 0,0 UV-I 128 W/m 0,8 C -0,4 C 37,0 km/h (5 Bft) 97,87 %
10.03.2017 14:16 6,7 C 65 % 1022,5 hPa 0,0 l/m 15,7 km/h (3 Bft) W-NW 285 0 min 0,000 mm 0,0 UV-I 129 W/m 0,6 C 0,8 C 27,4 km/h (4 Bft) 97,87 %
10.03.2017 14:18 6,7 C 66 % 1022,5 hPa 0,0 l/m 15,7 km/h (3 Bft) W-NW 282 0 min 0,000 mm 0,0 UV-I 129 W/m 0,8 C 0,8 C 27,4 km/h (4 Bft) 94,00 %
10.03.2017 14:20 6,7 C 66 % 1022,5 hPa 0,0 l/m 19,1 km/h (3 Bft) SW 220 0 min 0,000 mm 0,0 UV-I 137 W/m 0,8 C -0,6 C 32,2 km/h (5 Bft) 97,87 %
10.03.2017 14:22 6,7 C 65 % 1022,5 hPa 0,0 l/m 16,4 km/h (3 Bft) W 259 0 min 0,000 mm 0,0 UV-I 135 W/m 0,6 C 0,5 C 30,6 km/h (5 Bft) 100,00 %
10.03.2017 14:24 6,7 C 65 % 1022,6 hPa 0,0 l/m 19,3 km/h (3 Bft) W 263 0 min 0,000 mm 0,0 UV-I 136 W/m 0,6 C -0,7 C 29,0 km/h (5 Bft) 93,62 %
10.03.2017 14:26 6,7 C 65 % 1022,5 hPa 0,0 l/m 18,0 km/h (3 Bft) W-NW 292 0 min 0,000 mm 0,0 UV-I 138 W/m 0,6 C -0,2 C 32,2 km/h (5 Bft) 98,00 %
10.03.2017 14:28 6,7 C 65 % 1022,5 hPa 0,0 l/m 18,5 km/h (3 Bft) W 267 0 min 0,000 mm 0,0 UV-I 135 W/m 0,6 C -0,4 C 29,0 km/h (5 Bft) 97,37 %
10.03.2017 14:30 6,7 C 65 % 1022,5 hPa 0,0 l/m 17,9 km/h (3 Bft) W-NW 291 0 min 0,000 mm 0,0 UV-I 145 W/m 0,6 C -0,2 C 37,0 km/h (5 Bft) 93,62 %
10.03.2017 14:32 6,7 C 66 % 1022,4 hPa 0,0 l/m 13,5 km/h (3 Bft) W 260 0 min 0,000 mm 0,4 UV-I 159 W/m 0,8 C 1,9 C 24,1 km/h (4 Bft) 91,49 %
10.03.2017 14:34 6,8 C 66 % 1022,5 hPa 0,0 l/m 15,5 km/h (3 Bft) W-SW 248 0 min 0,000 mm 0,5 UV-I 166 W/m 0,9 C 1,0 C 27,4 km/h (4 Bft) 96,00 %
10.03.2017 14:36 6,8 C 66 % 1022,4 hPa 0,0 l/m 20,6 km/h (4 Bft) W-NW 300 0 min 0,000 mm 0,5 UV-I 173 W/m 0,9 C -1,1 C 33,8 km/h (5 Bft) 98,00 %
10.03.2017 14:38 6,9 C 66 % 1022,4 hPa 0,0 l/m 14,3 km/h (3 Bft) W-SW 258 0 min 0,000 mm 0,6 UV-I 182 W/m 1,0 C 1,7 C 24,1 km/h (4 Bft) 91,49 %
10.03.2017 14:40 6,9 C 66 % 1022,5 hPa 0,0 l/m 16,4 km/h (3 Bft) W 260 0 min 0,000 mm 0,5 UV-I 188 W/m 1,0 C 0,7 C 30,6 km/h (5 Bft) 95,74 %
10.03.2017 14:42 6,9 C 65 % 1022,4 hPa 0,0 l/m 20,8 km/h (4 Bft) NW 312 0 min 0,000 mm 0,5 UV-I 184 W/m 0,8 C -1,0 C 40,2 km/h (6 Bft) 95,74 %
10.03.2017 14:44 7,0 C 65 % 1022,4 hPa 0,0 l/m 17,6 km/h (3 Bft) W-SW 241 0 min 0,000 mm 0,5 UV-I 181 W/m 0,9 C 0,3 C 30,6 km/h (5 Bft) 93,62 %
10.03.2017 14:46 7,0 C 65 % 1022,4 hPa 0,0 l/m 20,9 km/h (4 Bft) W 281 0 min 0,000 mm 0,5 UV-I 188 W/m 0,9 C -0,9 C 35,4 km/h (5 Bft) 88,57 %
10.03.2017 14:48 7,0 C 64 % 1022,5 hPa 0,0 l/m 18,5 km/h (3 Bft) W-SW 253 0 min 0,000 mm 0,5 UV-I 166 W/m 0,7 C -0,0 C 32,2 km/h (5 Bft) 98,11 %
10.03.2017 14:50 7,0 C 64 % 1022,5 hPa 0,0 l/m 14,6 km/h (3 Bft) W-SW 258 0 min 0,000 mm 0,1 UV-I 157 W/m 0,7 C 1,7 C 24,1 km/h (4 Bft) 95,74 %
10.03.2017 14:52 7,0 C 65 % 1022,5 hPa 0,0 l/m 19,1 km/h (3 Bft) W-NW 296 0 min 0,000 mm 0,0 UV-I 147 W/m 0,9 C -0,3 C 25,7 km/h (4 Bft) 90,00 %
10.03.2017 14:54 7,0 C 65 % 1022,5 hPa 0,0 l/m 21,1 km/h (4 Bft) W-NW 283 0 min 0,000 mm 0,2 UV-I 159 W/m 0,9 C -1,0 C 35,4 km/h (5 Bft) 93,62 %
10.03.2017 14:56 7,0 C 63 % 1022,5 hPa 0,0 l/m 22,1 km/h (4 Bft) W-NW 284 0 min 0,000 mm 0,3 UV-I 166 W/m 0,4 C -1,3 C 37,0 km/h (5 Bft) 94,87 %
10.03.2017 14:58 7,0 C 63 % 1022,5 hPa 0,0 l/m 20,6 km/h (4 Bft) W 261 0 min 0,000 mm 0,0 UV-I 140 W/m 0,4 C -0,8 C 32,2 km/h (5 Bft) 94,12 %
10.03.2017 15:00 7,0 C 63 % 1022,5 hPa 0,0 l/m 19,3 km/h (3 Bft) W 263 0 min 0,000 mm 0,0 UV-I 123 W/m 0,4 C -0,3 C 27,4 km/h (4 Bft) 94,00 %
10.03.2017 15:02 7,0 C 64 % 1022,4 hPa 0,0 l/m 20,6 km/h (4 Bft) W 265 0 min 0,127 mm 0,0 UV-I 114 W/m 0,7 C -0,8 C 30,6 km/h (5 Bft) 95,92 %
10.03.2017 15:04 6,9 C 62 % 1022,6 hPa 0,0 l/m 20,4 km/h (4 Bft) W 260 0 min 0,000 mm 0,0 UV-I 105 W/m 0,1 C -0,9 C 35,4 km/h (5 Bft) 94,74 %
10.03.2017 15:06 6,9 C 63 % 1022,6 hPa 0,0 l/m 15,5 km/h (3 Bft) W-SW 246 0 min 0,000 mm 0,0 UV-I 99 W/m 0,4 C 1,1 C 24,1 km/h (4 Bft) 97,87 %
10.03.2017 15:08 6,9 C 63 % 1022,5 hPa 0,0 l/m 15,7 km/h (3 Bft) W-SW 239 0 min 0,000 mm 0,0 UV-I 102 W/m 0,4 C 1,1 C 25,7 km/h (4 Bft) 91,49 %
10.03.2017 15:10 6,9 C 63 % 1022,5 hPa 0,0 l/m 15,2 km/h (3 Bft) W-SW 252 0 min 0,000 mm 0,0 UV-I 104 W/m 0,4 C 1,3 C 25,7 km/h (4 Bft) 93,62 %
10.03.2017 15:12 6,9 C 63 % 1022,4 hPa 0,0 l/m 18,5 km/h (3 Bft) W 275 0 min 0,000 mm 0,0 UV-I 101 W/m 0,4 C -0,1 C 30,6 km/h (5 Bft) 96,00 %
10.03.2017 15:14 6,9 C 63 % 1022,5 hPa 0,0 l/m 16,6 km/h (3 Bft) W 263 0 min 0,000 mm 0,0 UV-I 96 W/m 0,4 C 0,6 C 29,0 km/h (5 Bft) 94,00 %
10.03.2017 15:16 6,9 C 62 % 1022,5 hPa 0,0 l/m 20,2 km/h (4 Bft) W 267 0 min 0,000 mm 0,0 UV-I 90 W/m 0,1 C -0,8 C 27,4 km/h (4 Bft) 96,00 %
10.03.2017 15:18 6,9 C 62 % 1022,6 hPa 0,0 l/m 14,1 km/h (3 Bft) W-NW 303 0 min 0,000 mm 0,0 UV-I 87 W/m 0,1 C 1,8 C 22,5 km/h (4 Bft) 97,37 %
10.03.2017 15:20 6,9 C 63 % 1022,5 hPa 0,0 l/m 13,4 km/h (3 Bft) W 263 0 min 0,000 mm 0,0 UV-I 89 W/m 0,4 C 2,2 C 24,1 km/h (4 Bft) 93,62 %
10.03.2017 15:22 6,9 C 63 % 1022,6 hPa 0,0 l/m 12,1 km/h (2 Bft) W-SW 248 0 min 0,000 mm 0,0 UV-I 96 W/m 0,4 C 2,9 C 22,5 km/h (4 Bft) 96,08 %
10.03.2017 15:24 6,9 C 63 % 1022,6 hPa 0,0 l/m 19,8 km/h (3 Bft) W 261 0 min 0,000 mm 0,0 UV-I 103 W/m 0,4 C -0,6 C 32,2 km/h (5 Bft) 93,62 %
10.03.2017 15:26 6,9 C 62 % 1022,6 hPa 0,0 l/m 19,5 km/h (3 Bft) W-SW 252 0 min 0,000 mm 0,0 UV-I 100 W/m 0,1 C -0,5 C 35,4 km/h (5 Bft) 91,49 %
10.03.2017 15:28 6,9 C 62 % 1022,6 hPa 0,0 l/m 15,0 km/h (3 Bft) W-SW 244 0 min 0,000 mm 0,0 UV-I 99 W/m 0,1 C 1,4 C 27,4 km/h (4 Bft) 95,74 %
10.03.2017 15:30 7,0 C 62 % 1022,6 hPa 0,0 l/m 20,2 km/h (4 Bft) W-SW 257 0 min 0,000 mm 0,0 UV-I 101 W/m 0,2 C -0,7 C 32,2 km/h (5 Bft) 92,00 %
10.03.2017 15:32 7,0 C 62 % 1022,7 hPa 0,0 l/m 15,1 km/h (3 Bft) S-SW 211 0 min 0,000 mm 0,0 UV-I 101 W/m 0,2 C 1,5 C 24,1 km/h (4 Bft) 94,59 %
10.03.2017 15:34 6,9 C 61 % 1022,6 hPa 0,0 l/m 21,6 km/h (4 Bft) W-SW 257 0 min 0,000 mm 0,0 UV-I 106 W/m -0,1 C -1,3 C 38,6 km/h (5 Bft) 93,75 %
10.03.2017 15:36 7,0 C 62 % 1022,7 hPa 0,0 l/m 18,1 km/h (3 Bft) W-SW 257 0 min 0,000 mm 0,0 UV-I 116 W/m 0,2 C 0,1 C 29,0 km/h (5 Bft) 91,84 %
10.03.2017 15:38 7,0 C 63 % 1022,6 hPa 0,0 l/m 19,5 km/h (3 Bft) W 263 0 min 0,000 mm 0,0 UV-I 122 W/m 0,4 C -0,4 C 29,0 km/h (5 Bft) 94,00 %
10.03.2017 15:40 7,0 C 62 % 1022,6 hPa 0,0 l/m 17,9 km/h (3 Bft) W-SW 255 0 min 0,000 mm 0,0 UV-I 119 W/m 0,2 C 0,2 C 30,6 km/h (5 Bft) 95,83 %
10.03.2017 15:42 7,0 C 63 % 1022,7 hPa 0,0 l/m 13,4 km/h (3 Bft) W-NW 282 0 min 0,000 mm 0,0 UV-I 118 W/m 0,4 C 2,3 C 27,4 km/h (4 Bft) 93,75 %
10.03.2017 15:44 7,0 C 62 % 1022,7 hPa 0,0 l/m 19,4 km/h (3 Bft) W 260 0 min 0,000 mm 0,0 UV-I 116 W/m 0,2 C -0,4 C 40,2 km/h (6 Bft) 91,49 %
10.03.2017 15:46 7,0 C 63 % 1022,7 hPa 0,0 l/m 16,0 km/h (3 Bft) W-NW 286 0 min 0,000 mm 0,0 UV-I 110 W/m 0,4 C 1,0 C 33,8 km/h (5 Bft) 95,74 %
10.03.2017 15:48 7,0 C 62 % 1022,7 hPa 0,0 l/m 16,5 km/h (3 Bft) W 279 0 min 0,000 mm 0,0 UV-I 102 W/m 0,2 C 0,8 C 27,4 km/h (4 Bft) 93,62 %
10.03.2017 15:50 7,1 C 62 % 1022,7 hPa 0,0 l/m 18,0 km/h (3 Bft) W 273 0 min 0,000 mm 0,0 UV-I 98 W/m 0,3 C 0,3 C 25,7 km/h (4 Bft) 97,37 %
10.03.2017 15:52 7,0 C 61 % 1022,9 hPa 0,0 l/m 17,7 km/h (3 Bft) W-SW 248 0 min 0,000 mm 0,0 UV-I 92 W/m 0,0 C 0,3 C 33,8 km/h (5 Bft) 94,00 %
10.03.2017 15:54 7,0 C 61 % 1022,9 hPa 0,0 l/m 15,4 km/h (3 Bft) W-SW 253 0 min 0,000 mm 0,0 UV-I 83 W/m 0,0 C 1,3 C 25,7 km/h (4 Bft) 94,34 %
10.03.2017 15:56 7,0 C 61 % 1022,9 hPa 0,0 l/m 16,1 km/h (3 Bft) NW 309 0 min 0,000 mm 0,0 UV-I 82 W/m 0,0 C 1,0 C 37,0 km/h (5 Bft) 97,37 %
10.03.2017 15:58 7,0 C 61 % 1023,0 hPa 0,0 l/m 18,4 km/h (3 Bft) W-SW 252 0 min 0,000 mm 0,0 UV-I 81 W/m 0,0 C 0,0 C 29,0 km/h (5 Bft) 95,74 %
10.03.2017 16:00 7,0 C 61 % 1022,9 hPa 0,0 l/m 14,8 km/h (3 Bft) W 262 0 min 0,000 mm 0,0 UV-I 81 W/m 0,0 C 1,6 C 30,6 km/h (5 Bft) 93,62 %
10.03.2017 16:02 7,0 C 63 % 1023,0 hPa 0,0 l/m 15,9 km/h (3 Bft) W 277 0 min 0,102 mm 0,0 UV-I 79 W/m 0,4 C 1,1 C 27,4 km/h (4 Bft) 97,87 %
10.03.2017 16:04 6,9 C 61 % 1023,0 hPa 0,0 l/m 14,7 km/h (3 Bft) W 259 0 min 0,000 mm 0,0 UV-I 76 W/m -0,1 C 1,5 C 20,9 km/h (4 Bft) 97,87 %
10.03.2017 16:06 6,9 C 61 % 1022,9 hPa 0,0 l/m 17,5 km/h (3 Bft) W 271 0 min 0,000 mm 0,0 UV-I 76 W/m -0,1 C 0,3 C 27,4 km/h (4 Bft) 95,74 %
10.03.2017 16:08 6,9 C 60 % 1023,0 hPa 0,0 l/m 15,9 km/h (3 Bft) W 275 0 min 0,000 mm 0,0 UV-I 77 W/m -0,3 C 1,0 C 37,0 km/h (5 Bft) 96,00 %
10.03.2017 16:10 7,0 C 61 % 1023,0 hPa 0,0 l/m 17,7 km/h (3 Bft) W-SW 250 0 min 0,000 mm 0,0 UV-I 77 W/m 0,0 C 0,3 C 35,4 km/h (5 Bft) 100,00 %
10.03.2017 16:12 6,9 C 61 % 1023,0 hPa 0,0 l/m 18,6 km/h (3 Bft) SW 234 0 min 0,000 mm 0,0 UV-I 76 W/m -0,1 C -0,2 C 32,2 km/h (5 Bft) 100,00 %
10.03.2017 16:14 6,9 C 61 % 1023,0 hPa 0,0 l/m 17,4 km/h (3 Bft) W 267 0 min 0,000 mm 0,0 UV-I 72 W/m -0,1 C 0,3 C 27,4 km/h (4 Bft) 97,87 %
10.03.2017 16:16 6,9 C 61 % 1022,9 hPa 0,0 l/m 15,7 km/h (3 Bft) W-SW 242 0 min 0,000 mm 0,0 UV-I 67 W/m -0,1 C 1,1 C 29,0 km/h (5 Bft) 94,87 %
10.03.2017 16:18 6,9 C 61 % 1023,0 hPa 0,0 l/m 14,6 km/h (3 Bft) W-SW 253 0 min 0,000 mm 0,0 UV-I 62 W/m -0,1 C 1,6 C 25,7 km/h (4 Bft) 94,00 %
10.03.2017 16:20 6,9 C 61 % 1023,0 hPa 0,0 l/m 17,2 km/h (3 Bft) W-NW 289 0 min 0,000 mm 0,0 UV-I 58 W/m -0,1 C 0,4 C 27,4 km/h (4 Bft) 97,87 %
10.03.2017 16:22 6,9 C 61 % 1023,0 hPa 0,0 l/m 18,5 km/h (3 Bft) W-SW 244 0 min 0,000 mm 0,0 UV-I 55 W/m -0,1 C -0,1 C 33,8 km/h (5 Bft) 91,49 %
10.03.2017 16:24 6,9 C 61 % 1023,0 hPa 0,0 l/m 19,9 km/h (4 Bft) W-SW 248 0 min 0,000 mm 0,0 UV-I 53 W/m -0,1 C -0,7 C 25,7 km/h (4 Bft) 100,00 %
10.03.2017 16:26 6,9 C 61 % 1023,0 hPa 0,0 l/m 15,1 km/h (3 Bft) W-SW 246 0 min 0,000 mm 0,0 UV-I 53 W/m -0,1 C 1,3 C 27,4 km/h (4 Bft) 97,87 %
10.03.2017 16:28 6,9 C 62 % 1023,0 hPa 0,0 l/m 14,8 km/h (3 Bft) W-SW 253 0 min 0,000 mm 0,0 UV-I 52 W/m 0,1 C 1,5 C 19,3 km/h (3 Bft) 97,87 %
10.03.2017 16:30 6,9 C 62 % 1023,1 hPa 0,0 l/m 13,9 km/h (3 Bft) W 263 0 min 0,000 mm 0,0 UV-I 51 W/m 0,1 C 1,9 C 19,3 km/h (3 Bft) 92,00 %
10.03.2017 16:32 6,9 C 62 % 1023,1 hPa 0,0 l/m 12,3 km/h (3 Bft) W 269 0 min 0,000 mm 0,0 UV-I 48 W/m 0,1 C 2,8 C 22,5 km/h (4 Bft) 91,49 %
10.03.2017 16:34 6,8 C 62 % 1023,1 hPa 0,0 l/m 15,7 km/h (3 Bft) W 271 0 min 0,000 mm 0,0 UV-I 47 W/m 0,0 C 0,9 C 22,5 km/h (4 Bft) 93,62 %
10.03.2017 16:36 6,9 C 62 % 1023,1 hPa 0,0 l/m 9,3 km/h (2 Bft) NW 325 0 min 0,000 mm 0,0 UV-I 49 W/m 0,1 C 4,6 C 12,9 km/h (3 Bft) 93,62 %
10.03.2017 16:38 6,8 C 63 % 1023,2 hPa 0,0 l/m 11,8 km/h (2 Bft) W-NW 290 0 min 0,000 mm 0,0 UV-I 52 W/m 0,3 C 2,9 C 19,3 km/h (3 Bft) 95,74 %
10.03.2017 16:40 6,8 C 63 % 1023,2 hPa 0,0 l/m 9,5 km/h (2 Bft) SW 234 0 min 0,000 mm 0,0 UV-I 54 W/m 0,3 C 4,4 C 17,7 km/h (3 Bft) 98,00 %
10.03.2017 16:42 6,8 C 63 % 1023,3 hPa 0,0 l/m 10,1 km/h (2 Bft) W-SW 252 0 min 0,000 mm 0,0 UV-I 56 W/m 0,3 C 4,0 C 16,1 km/h (3 Bft) 95,12 %
10.03.2017 16:44 6,8 C 63 % 1023,2 hPa 0,0 l/m 14,0 km/h (3 Bft) W 268 0 min 0,000 mm 0,0 UV-I 56 W/m 0,3 C 1,8 C 20,9 km/h (4 Bft) 97,87 %
10.03.2017 16:46 6,8 C 63 % 1023,3 hPa 0,0 l/m 10,2 km/h (2 Bft) W 264 0 min 0,000 mm 0,0 UV-I 54 W/m 0,3 C 3,9 C 16,1 km/h (3 Bft) 96,00 %
10.03.2017 16:48 6,8 C 62 % 1023,3 hPa 0,0 l/m 16,0 km/h (3 Bft) W-SW 248 0 min 0,000 mm 0,0 UV-I 54 W/m 0,0 C 0,8 C 25,7 km/h (4 Bft) 97,87 %
10.03.2017 16:50 6,8 C 63 % 1023,2 hPa 0,0 l/m 12,5 km/h (3 Bft) W 279 0 min 0,000 mm 0,0 UV-I 54 W/m 0,3 C 2,5 C 25,7 km/h (4 Bft) 91,49 %
10.03.2017 16:52 6,8 C 63 % 1023,3 hPa 0,0 l/m 15,6 km/h (3 Bft) W-SW 253 0 min 0,000 mm 0,0 UV-I 53 W/m 0,3 C 1,0 C 27,4 km/h (4 Bft) 97,87 %
10.03.2017 16:54 6,8 C 62 % 1023,3 hPa 0,0 l/m 15,4 km/h (3 Bft) W-SW 254 0 min 0,000 mm 0,0 UV-I 50 W/m 0,0 C 1,1 C 27,4 km/h (4 Bft) 93,62 %
10.03.2017 16:56 6,8 C 63 % 1023,3 hPa 0,0 l/m 8,8 km/h (2 Bft) SW 234 0 min 0,000 mm 0,0 UV-I 44 W/m 0,3 C 4,9 C 16,1 km/h (3 Bft) 91,49 %
10.03.2017 16:58 6,8 C 64 % 1023,4 hPa 0,0 l/m 12,4 km/h (3 Bft) W-NW 301 0 min 0,000 mm 0,0 UV-I 40 W/m 0,5 C 2,6 C 19,3 km/h (3 Bft) 95,65 %
10.03.2017 17:00 6,8 C 63 % 1023,3 hPa 0,0 l/m 10,9 km/h (2 Bft) W 265 0 min 0,000 mm 0,0 UV-I 39 W/m 0,3 C 3,5 C 20,9 km/h (4 Bft) 98,00 %
10.03.2017 17:02 6,8 C 63 % 1023,3 hPa 0,0 l/m 13,6 km/h (3 Bft) W-SW 243 0 min 0,076 mm 0,0 UV-I 36 W/m 0,3 C 2,0 C 24,1 km/h (4 Bft) 100,00 %
10.03.2017 17:04 6,8 C 63 % 1023,4 hPa 0,0 l/m 12,5 km/h (3 Bft) W 274 0 min 0,000 mm 0,0 UV-I 36 W/m 0,3 C 2,5 C 20,9 km/h (4 Bft) 97,87 %
10.03.2017 17:06 6,8 C 63 % 1023,4 hPa 0,0 l/m 11,5 km/h (2 Bft) W-SW 257 0 min 0,000 mm 0,0 UV-I 37 W/m 0,3 C 3,1 C 20,9 km/h (4 Bft) 95,74 %
10.03.2017 17:08 6,8 C 63 % 1023,4 hPa 0,0 l/m 18,4 km/h (3 Bft) W-SW 258 0 min 0,000 mm 0,0 UV-I 37 W/m 0,3 C -0,2 C 32,2 km/h (5 Bft) 95,74 %
10.03.2017 17:10 6,8 C 63 % 1023,4 hPa 0,0 l/m 12,2 km/h (2 Bft) W 279 0 min 0,000 mm 0,0 UV-I 36 W/m 0,3 C 2,7 C 24,1 km/h (4 Bft) 97,87 %
10.03.2017 17:12 6,8 C 63 % 1023,4 hPa 0,0 l/m 15,1 km/h (3 Bft) W-SW 242 0 min 0,000 mm 0,0 UV-I 33 W/m 0,3 C 1,2 C 27,4 km/h (4 Bft) 95,74 %
10.03.2017 17:14 6,7 C 64 % 1023,5 hPa 0,0 l/m 11,5 km/h (2 Bft) W-NW 284 0 min 0,000 mm 0,0 UV-I 31 W/m 0,4 C 3,0 C 20,9 km/h (4 Bft) 98,00 %
10.03.2017 17:16 6,7 C 64 % 1023,5 hPa 0,0 l/m 8,0 km/h (2 Bft) W 260 0 min 0,000 mm 0,0 UV-I 28 W/m 0,4 C 5,4 C 12,9 km/h (3 Bft) 98,00 %
10.03.2017 17:18 6,7 C 64 % 1023,5 hPa 0,0 l/m 12,8 km/h (3 Bft) W 277 0 min 0,000 mm 0,0 UV-I 27 W/m 0,4 C 2,3 C 17,7 km/h (3 Bft) 100,00 %
10.03.2017 17:20 6,7 C 64 % 1023,5 hPa 0,0 l/m 11,6 km/h (2 Bft) W 269 0 min 0,000 mm 0,0 UV-I 25 W/m 0,4 C 2,9 C 19,3 km/h (3 Bft) 97,87 %
10.03.2017 17:22 6,7 C 64 % 1023,5 hPa 0,0 l/m 8,6 km/h (2 Bft) W-SW 258 0 min 0,000 mm 0,0 UV-I 24 W/m 0,4 C 4,9 C 16,1 km/h (3 Bft) 100,00 %
10.03.2017 17:24 6,6 C 64 % 1023,5 hPa 0,0 l/m 11,5 km/h (2 Bft) SW 223 0 min 0,000 mm 0,0 UV-I 22 W/m 0,3 C 2,9 C 20,9 km/h (4 Bft) 97,87 %
10.03.2017 17:26 6,6 C 64 % 1023,5 hPa 0,0 l/m 12,5 km/h (3 Bft) W-SW 253 0 min 0,000 mm 0,0 UV-I 19 W/m 0,3 C 2,3 C 16,1 km/h (3 Bft) 100,00 %
10.03.2017 17:28 6,6 C 64 % 1023,5 hPa 0,0 l/m 10,4 km/h (2 Bft) W-NW 282 0 min 0,000 mm 0,0 UV-I 18 W/m 0,3 C 3,6 C 16,1 km/h (3 Bft) 95,74 %
10.03.2017 17:30 6,6 C 64 % 1023,5 hPa 0,0 l/m 14,6 km/h (3 Bft) W-SW 248 0 min 0,000 mm 0,0 UV-I 18 W/m 0,3 C 1,2 C 19,3 km/h (3 Bft) 100,00 %
10.03.2017 17:32 6,6 C 65 % 1023,6 hPa 0,0 l/m 12,4 km/h (3 Bft) W 281 0 min 0,000 mm 0,0 UV-I 18 W/m 0,5 C 2,4 C 19,3 km/h (3 Bft) 95,74 %
10.03.2017 17:34 6,6 C 65 % 1023,6 hPa 0,0 l/m 14,5 km/h (3 Bft) W 266 0 min 0,000 mm 0,0 UV-I 17 W/m 0,5 C 1,3 C 22,5 km/h (4 Bft) 97,87 %
10.03.2017 17:36 6,6 C 64 % 1023,7 hPa 0,0 l/m 12,3 km/h (3 Bft) W 261 0 min 0,000 mm 0,0 UV-I 15 W/m 0,3 C 2,4 C 19,3 km/h (3 Bft) 100,00 %
10.03.2017 17:38 6,6 C 65 % 1023,7 hPa 0,0 l/m 11,6 km/h (2 Bft) W-SW 243 0 min 0,000 mm 0,0 UV-I 14 W/m 0,5 C 2,8 C 17,7 km/h (3 Bft) 97,87 %
10.03.2017 17:40 6,6 C 65 % 1023,7 hPa 0,0 l/m 14,5 km/h (3 Bft) W-SW 254 0 min 0,000 mm 0,0 UV-I 12 W/m 0,5 C 1,3 C 20,9 km/h (4 Bft) 97,96 %
10.03.2017 17:42 6,6 C 64 % 1023,7 hPa 0,0 l/m 9,7 km/h (2 Bft) SW 221 0 min 0,000 mm 0,0 UV-I 12 W/m 0,3 C 4,0 C 20,9 km/h (4 Bft) 97,87 %
10.03.2017 17:44 6,6 C 65 % 1023,8 hPa 0,0 l/m 16,5 km/h (3 Bft) W-SW 256 0 min 0,000 mm 0,0 UV-I 11 W/m 0,5 C 0,3 C 27,4 km/h (4 Bft) 100,00 %
10.03.2017 17:46 6,6 C 65 % 1023,8 hPa 0,0 l/m 9,7 km/h (2 Bft) W 273 0 min 0,000 mm 0,0 UV-I 10 W/m 0,5 C 4,0 C 14,5 km/h (3 Bft) 95,74 %
10.03.2017 17:48 6,5 C 65 % 1023,8 hPa 0,0 l/m 12,8 km/h (3 Bft) W-NW 282 0 min 0,000 mm 0,0 UV-I 9 W/m 0,4 C 2,0 C 19,3 km/h (3 Bft) 98,00 %
10.03.2017 17:50 6,5 C 65 % 1023,8 hPa 0,0 l/m 17,8 km/h (3 Bft) W-SW 257 0 min 0,000 mm 0,0 UV-I 8 W/m 0,4 C -0,4 C 30,6 km/h (5 Bft) 100,00 %
10.03.2017 17:52 6,5 C 65 % 1023,8 hPa 0,0 l/m 15,7 km/h (3 Bft) W 269 0 min 0,000 mm 0,0 UV-I 7 W/m 0,4 C 0,6 C 27,4 km/h (4 Bft) 97,87 %
10.03.2017 17:54 6,5 C 65 % 1023,9 hPa 0,0 l/m 14,6 km/h (3 Bft) W-SW 255 0 min 0,000 mm 0,0 UV-I 7 W/m 0,4 C 1,1 C 22,5 km/h (4 Bft) 100,00 %
10.03.2017 17:56 6,5 C 65 % 1023,9 hPa 0,0 l/m 14,1 km/h (3 Bft) W-SW 240 0 min 0,000 mm 0,0 UV-I 6 W/m 0,4 C 1,3 C 20,9 km/h (4 Bft) 98,00 %
10.03.2017 17:58 6,5 C 65 % 1023,9 hPa 0,0 l/m 14,9 km/h (3 Bft) W 273 0 min 0,000 mm 0,0 UV-I 5 W/m 0,4 C 0,9 C 22,5 km/h (4 Bft) 98,11 %
10.03.2017 18:00 6,5 C 65 % 1023,9 hPa 0,0 l/m 11,7 km/h (2 Bft) W 265 0 min 0,000 mm 0,0 UV-I 5 W/m 0,4 C 2,7 C 19,3 km/h (3 Bft) 97,14 %
10.03.2017 18:02 6,5 C 66 % 1023,9 hPa 0,0 l/m 10,1 km/h (2 Bft) W 267 0 min 0,051 mm 0,0 UV-I 5 W/m 0,6 C 3,7 C 14,5 km/h (3 Bft) 96,55 %
10.03.2017 18:04 6,4 C 66 % 1023,9 hPa 0,0 l/m 8,5 km/h (2 Bft) W 278 0 min 0,000 mm 0,0 UV-I 5 W/m 0,5 C 4,7 C 12,9 km/h (3 Bft) 100,00 %
10.03.2017 18:06 6,4 C 65 % 1024,0 hPa 0,0 l/m 11,7 km/h (2 Bft) W-NW 286 0 min 0,000 mm 0,0 UV-I 3 W/m 0,3 C 2,5 C 17,7 km/h (3 Bft) 97,87 %
10.03.2017 18:08 6,4 C 65 % 1024,0 hPa 0,0 l/m 8,5 km/h (2 Bft) W 264 0 min 0,000 mm 0,0 UV-I 0 W/m 0,3 C 4,7 C 11,3 km/h (2 Bft) 100,00 %
10.03.2017 18:10 6,4 C 65 % 1024,0 hPa 0,0 l/m 12,0 km/h (2 Bft) W 275 0 min 0,000 mm 0,0 UV-I 0 W/m 0,3 C 2,4 C 20,9 km/h (4 Bft) 100,00 %
10.03.2017 18:12 6,4 C 65 % 1024,1 hPa 0,0 l/m 10,8 km/h (2 Bft) W 265 0 min 0,000 mm 0,0 UV-I 0 W/m 0,3 C 3,1 C 19,3 km/h (3 Bft) 100,00 %
10.03.2017 18:14 6,4 C 65 % 1024,1 hPa 0,0 l/m 12,5 km/h (3 Bft) W 275 0 min 0,000 mm 0,0 UV-I 0 W/m 0,3 C 2,1 C 19,3 km/h (3 Bft) 97,22 %
10.03.2017 18:16 6,4 C 65 % 1024,2 hPa 0,0 l/m 8,9 km/h (2 Bft) W 272 0 min 0,000 mm 0,0 UV-I 0 W/m 0,3 C 4,4 C 16,1 km/h (3 Bft) 100,00 %
10.03.2017 18:18 6,4 C 66 % 1024,2 hPa 0,0 l/m 9,1 km/h (2 Bft) W-NW 290 0 min 0,000 mm 0,0 UV-I 0 W/m 0,5 C 4,2 C 17,7 km/h (3 Bft) 97,87 %
10.03.2017 18:20 6,3 C 66 % 1024,1 hPa 0,0 l/m 8,5 km/h (2 Bft) W-SW 256 0 min 0,000 mm 0,0 UV-I 0 W/m 0,4 C 4,6 C 17,7 km/h (3 Bft) 100,00 %
10.03.2017 18:22 6,4 C 65 % 1024,2 hPa 0,0 l/m 11,3 km/h (2 Bft) W 265 0 min 0,000 mm 0,0 UV-I 0 W/m 0,3 C 2,8 C 19,3 km/h (3 Bft) 97,87 %
10.03.2017 18:25 6,4 C 65 % 1024,2 hPa 0,0 l/m 13,7 km/h (3 Bft) W-NW 286 0 min 0,000 mm 0,0 UV-I 0 W/m 0,3 C 1,4 C 20,9 km/h (4 Bft) 98,68 %
10.03.2017 18:26 6,4 C 64 % 1024,2 hPa 0,0 l/m 11,1 km/h (2 Bft) W-NW 282 0 min 0,000 mm 0,0 UV-I 0 W/m 0,1 C 2,9 C 16,1 km/h (3 Bft) 100,00 %
10.03.2017 18:28 6,4 C 65 % 1024,2 hPa 0,0 l/m 10,9 km/h (2 Bft) W-NW 301 0 min 0,000 mm 0,0 UV-I 0 W/m 0,3 C 3,0 C 17,7 km/h (3 Bft) 98,00 %
10.03.2017 18:30 6,4 C 64 % 1024,3 hPa 0,0 l/m 13,6 km/h (3 Bft) W-SW 257 0 min 0,000 mm 0,0 UV-I 0 W/m 0,1 C 1,5 C 24,1 km/h (4 Bft) 100,00 %
10.03.2017 18:32 6,4 C 64 % 1024,3 hPa 0,0 l/m 11,7 km/h (2 Bft) W 270 0 min 0,000 mm 0,0 UV-I 0 W/m 0,1 C 2,5 C 19,3 km/h (3 Bft) 98,00 %
10.03.2017 18:34 6,4 C 64 % 1024,4 hPa 0,0 l/m 10,9 km/h (2 Bft) W 267 0 min 0,000 mm 0,0 UV-I 0 W/m 0,1 C 3,0 C 17,7 km/h (3 Bft) 95,74 %
10.03.2017 18:36 6,4 C 64 % 1024,4 hPa 0,0 l/m 10,2 km/h (2 Bft) W-NW 288 0 min 0,000 mm 0,0 UV-I 0 W/m 0,1 C 3,5 C 12,9 km/h (3 Bft) 93,62 %
10.03.2017 18:38 6,4 C 64 % 1024,4 hPa 0,0 l/m 8,4 km/h (2 Bft) W 268 0 min 0,000 mm 0,0 UV-I 0 W/m 0,1 C 4,8 C 12,9 km/h (3 Bft) 95,74 %
10.03.2017 18:40 6,4 C 65 % 1024,4 hPa 0,0 l/m 9,3 km/h (2 Bft) W 263 0 min 0,000 mm 0,0 UV-I 0 W/m 0,3 C 4,1 C 14,5 km/h (3 Bft) 98,00 %
10.03.2017 18:42 6,3 C 65 % 1024,5 hPa 0,0 l/m 7,8 km/h (2 Bft) W 261 0 min 0,000 mm 0,0 UV-I 0 W/m 0,2 C 5,1 C 12,9 km/h (3 Bft) 96,00 %
10.03.2017 18:44 6,3 C 66 % 1024,5 hPa 0,0 l/m 9,9 km/h (2 Bft) W 270 0 min 0,000 mm 0,0 UV-I 0 W/m 0,4 C 3,6 C 12,9 km/h (3 Bft) 93,62 %
10.03.2017 18:46 6,3 C 66 % 1024,5 hPa 0,0 l/m 10,0 km/h (2 Bft) W-SW 256 0 min 0,000 mm 0,0 UV-I 0 W/m 0,4 C 3,5 C 16,1 km/h (3 Bft) 97,14 %
10.03.2017 18:48 6,2 C 66 % 1024,6 hPa 0,0 l/m 9,6 km/h (2 Bft) W-SW 252 0 min 0,000 mm 0,0 UV-I 0 W/m 0,3 C 3,7 C 17,7 km/h (3 Bft) 96,15 %
10.03.2017 18:50 6,2 C 66 % 1024,6 hPa 0,0 l/m 9,5 km/h (2 Bft) W-SW 257 0 min 0,000 mm 0,0 UV-I 0 W/m 0,3 C 3,7 C 14,5 km/h (3 Bft) 97,87 %
10.03.2017 18:52 6,2 C 66 % 1024,6 hPa 0,0 l/m 8,1 km/h (2 Bft) W-SW 252 0 min 0,000 mm 0,0 UV-I 0 W/m 0,3 C 4,8 C 12,9 km/h (3 Bft) 91,49 %
10.03.2017 18:54 6,2 C 66 % 1024,6 hPa 0,0 l/m 10,0 km/h (2 Bft) W-SW 255 0 min 0,000 mm 0,0 UV-I 0 W/m 0,3 C 3,4 C 17,7 km/h (3 Bft) 98,00 %
10.03.2017 18:56 6,2 C 66 % 1024,7 hPa 0,0 l/m 9,6 km/h (2 Bft) W 263 0 min 0,000 mm 0,0 UV-I 0 W/m 0,3 C 3,7 C 16,1 km/h (3 Bft) 96,30 %
10.03.2017 18:58 6,2 C 66 % 1024,6 hPa 0,0 l/m 11,4 km/h (2 Bft) W-SW 243 0 min 0,000 mm 0,0 UV-I 0 W/m 0,3 C 2,5 C 17,7 km/h (3 Bft) 97,01 %
10.03.2017 19:00 6,2 C 66 % 1024,8 hPa 0,0 l/m 11,4 km/h (2 Bft) W-NW 292 0 min 0,000 mm 0,0 UV-I 0 W/m 0,3 C 2,5 C 19,3 km/h (3 Bft) 95,74 %
10.03.2017 19:02 6,2 C 66 % 1024,8 hPa 0,0 l/m 10,4 km/h (2 Bft) W-NW 288 0 min 0,025 mm 0,0 UV-I 0 W/m 0,3 C 3,1 C 16,1 km/h (3 Bft) 87,23 %
10.03.2017 19:04 6,2 C 66 % 1024,7 hPa 0,0 l/m 8,0 km/h (2 Bft) W 269 0 min 0,000 mm 0,0 UV-I 0 W/m 0,3 C 4,9 C 14,5 km/h (3 Bft) 97,87 %
10.03.2017 19:06 6,2 C 66 % 1024,7 hPa 0,0 l/m 8,4 km/h (2 Bft) W-NW 283 0 min 0,000 mm 0,0 UV-I 0 W/m 0,3 C 4,6 C 12,9 km/h (3 Bft) 97,87 %
10.03.2017 19:09 6,2 C 66 % 1024,8 hPa 0,0 l/m 8,0 km/h (2 Bft) W-NW 284 0 min 0,000 mm 0,0 UV-I 0 W/m 0,3 C 4,9 C 12,9 km/h (3 Bft) 94,37 %
10.03.2017 19:10 6,2 C 66 % 1024,9 hPa 0,0 l/m 11,2 km/h (2 Bft) W-SW 253 0 min 0,000 mm 0,0 UV-I 0 W/m 0,3 C 2,6 C 16,1 km/h (3 Bft) 86,67 %
10.03.2017 19:12 6,2 C 66 % 1024,8 hPa 0,0 l/m 9,2 km/h (2 Bft) W-SW 252 0 min 0,000 mm 0,0 UV-I 0 W/m 0,3 C 4,0 C 14,5 km/h (3 Bft) 100,00 %
10.03.2017 19:14 6,2 C 66 % 1024,8 hPa 0,0 l/m 9,0 km/h (2 Bft) W 269 0 min 0,000 mm 0,0 UV-I 0 W/m 0,3 C 4,1 C 11,3 km/h (2 Bft) 95,74 %
10.03.2017 19:16 6,2 C 66 % 1024,9 hPa 0,0 l/m 8,6 km/h (2 Bft) W-SW 255 0 min 0,000 mm 0,0 UV-I 0 W/m 0,3 C 4,4 C 12,9 km/h (3 Bft) 100,00 %
10.03.2017 19:18 6,2 C 66 % 1024,9 hPa 0,0 l/m 6,2 km/h (2 Bft) W 273 0 min 0,000 mm 0,0 UV-I 0 W/m 0,3 C 6,2 C 9,7 km/h (2 Bft) 93,62 %
10.03.2017 19:20 6,1 C 67 % 1024,9 hPa 0,0 l/m 8,5 km/h (2 Bft) W 264 0 min 0,000 mm 0,0 UV-I 0 W/m 0,4 C 4,4 C 14,5 km/h (3 Bft) 97,87 %
10.03.2017 19:22 6,1 C 67 % 1025,0 hPa 0,0 l/m 7,9 km/h (2 Bft) W 259 0 min 0,000 mm 0,0 UV-I 0 W/m 0,4 C 4,8 C 11,3 km/h (2 Bft) 95,74 %
10.03.2017 19:24 6,1 C 67 % 1025,0 hPa 0,0 l/m 7,9 km/h (2 Bft) W-SW 258 0 min 0,000 mm 0,0 UV-I 0 W/m 0,4 C 4,8 C 12,9 km/h (3 Bft) 92,45 %
10.03.2017 19:26 6,1 C 67 % 1024,9 hPa 0,0 l/m 7,0 km/h (2 Bft) W 259 0 min 0,000 mm 0,0 UV-I 0 W/m 0,4 C 5,6 C 12,9 km/h (3 Bft) 94,74 %
10.03.2017 19:28 6,0 C 67 % 1025,0 hPa 0,0 l/m 6,7 km/h (2 Bft) W-SW 257 0 min 0,000 mm 0,0 UV-I 0 W/m 0,3 C 5,8 C 9,7 km/h (2 Bft) 92,45 %
10.03.2017 19:30 6,0 C 67 % 1025,0 hPa 0,0 l/m 8,2 km/h (2 Bft) W-SW 243 0 min 0,000 mm 0,0 UV-I 0 W/m 0,3 C 4,5 C 11,3 km/h (2 Bft) 90,00 %
10.03.2017 19:32 6,0 C 67 % 1025,1 hPa 0,0 l/m 7,3 km/h (2 Bft) W 259 0 min 0,000 mm 0,0 UV-I 0 W/m 0,3 C 5,2 C 11,3 km/h (2 Bft) 97,87 %
10.03.2017 19:34 5,9 C 68 % 1025,1 hPa 0,0 l/m 6,8 km/h (2 Bft) W-SW 252 0 min 0,000 mm 0,0 UV-I 0 W/m 0,5 C 5,6 C 11,3 km/h (2 Bft) 95,74 %
10.03.2017 19:36 5,9 C 68 % 1025,1 hPa 0,0 l/m 6,8 km/h (2 Bft) W 263 0 min 0,000 mm 0,0 UV-I 0 W/m 0,5 C 5,6 C 9,7 km/h (2 Bft) 94,00 %
10.03.2017 19:38 5,9 C 69 % 1025,2 hPa 0,0 l/m 6,1 km/h (2 Bft) W 279 0 min 0,000 mm 0,0 UV-I 0 W/m 0,7 C 5,9 C 9,7 km/h (2 Bft) 97,22 %
10.03.2017 19:40 5,9 C 69 % 1025,2 hPa 0,0 l/m 7,6 km/h (2 Bft) W-SW 255 0 min 0,000 mm 0,0 UV-I 0 W/m 0,7 C 4,9 C 14,5 km/h (3 Bft) 98,00 %
10.03.2017 19:42 5,8 C 69 % 1025,2 hPa 0,0 l/m 7,1 km/h (2 Bft) W 263 0 min 0,000 mm 0,0 UV-I 0 W/m 0,6 C 5,2 C 11,3 km/h (2 Bft) 92,00 %
10.03.2017 19:44 5,8 C 69 % 1025,2 hPa 0,0 l/m 7,1 km/h (2 Bft) W 263 0 min 0,000 mm 0,0 UV-I 0 W/m 0,6 C 5,2 C 11,3 km/h (2 Bft) 91,84 %
10.03.2017 19:46 5,8 C 70 % 1025,2 hPa 0,0 l/m 10,1 km/h (2 Bft) W-SW 254 0 min 0,000 mm 0,0 UV-I 0 W/m 0,8 C 2,9 C 12,9 km/h (3 Bft) 95,74 %
10.03.2017 19:48 5,7 C 69 % 1025,3 hPa 0,0 l/m 7,1 km/h (2 Bft) W 260 0 min 0,000 mm 0,0 UV-I 0 W/m 0,5 C 5,1 C 11,3 km/h (2 Bft) 96,00 %
10.03.2017 19:50 5,8 C 69 % 1025,2 hPa 0,0 l/m 8,2 km/h (2 Bft) W 263 0 min 0,000 mm 0,0 UV-I 0 W/m 0,6 C 4,3 C 12,9 km/h (3 Bft) 91,49 %
10.03.2017 19:52 5,8 C 70 % 1025,3 hPa 0,0 l/m 8,1 km/h (2 Bft) W-SW 253 0 min 0,000 mm 0,0 UV-I 0 W/m 0,8 C 4,4 C 12,9 km/h (3 Bft) 93,62 %
10.03.2017 19:54 5,8 C 70 % 1025,2 hPa 0,0 l/m 8,7 km/h (2 Bft) W 262 0 min 0,000 mm 0,0 UV-I 0 W/m 0,8 C 3,9 C 12,9 km/h (3 Bft) 97,30 %
10.03.2017 19:56 5,8 C 70 % 1025,2 hPa 0,0 l/m 7,2 km/h (2 Bft) W 264 0 min 0,000 mm 0,0 UV-I 0 W/m 0,8 C 5,1 C 11,3 km/h (2 Bft) 95,74 %
10.03.2017 19:58 5,8 C 70 % 1025,2 hPa 0,0 l/m 8,2 km/h (2 Bft) W 276 0 min 0,000 mm 0,0 UV-I 0 W/m 0,8 C 4,3 C 12,9 km/h (3 Bft) 95,74 %
10.03.2017 20:00 5,8 C 70 % 1025,2 hPa 0,0 l/m 6,9 km/h (2 Bft) W 281 0 min 0,000 mm 0,0 UV-I 0 W/m 0,8 C 5,4 C 9,7 km/h (2 Bft) 91,49 %
10.03.2017 20:02 5,8 C 70 % 1025,2 hPa 0,0 l/m 7,1 km/h (2 Bft) W 275 0 min 0,025 mm 0,0 UV-I 0 W/m 0,8 C 5,2 C 11,3 km/h (2 Bft) 92,00 %
10.03.2017 20:04 5,7 C 70 % 1025,2 hPa 0,0 l/m 9,9 km/h (2 Bft) W-SW 257 0 min 0,000 mm 0,0 UV-I 0 W/m 0,7 C 2,9 C 16,1 km/h (3 Bft) 94,00 %
10.03.2017 20:06 5,8 C 70 % 1025,3 hPa 0,0 l/m 10,4 km/h (2 Bft) W-SW 250 0 min 0,000 mm 0,0 UV-I 0 W/m 0,8 C 2,7 C 16,1 km/h (3 Bft) 97,87 %
10.03.2017 20:08 5,8 C 70 % 1025,3 hPa 0,0 l/m 7,4 km/h (2 Bft) W 274 0 min 0,000 mm 0,0 UV-I 0 W/m 0,8 C 4,9 C 11,3 km/h (2 Bft) 95,74 %
10.03.2017 20:10 5,7 C 70 % 1025,3 hPa 0,0 l/m 8,2 km/h (2 Bft) W 261 0 min 0,000 mm 0,0 UV-I 0 W/m 0,7 C 4,2 C 11,3 km/h (2 Bft) 97,44 %
10.03.2017 20:12 5,7 C 70 % 1025,3 hPa 0,0 l/m 6,3 km/h (2 Bft) W 261 0 min 0,000 mm 0,0 UV-I 0 W/m 0,7 C 5,7 C 9,7 km/h (2 Bft) 93,88 %
10.03.2017 20:14 5,7 C 70 % 1025,4 hPa 0,0 l/m 9,2 km/h (2 Bft) W-SW 252 0 min 0,000 mm 0,0 UV-I 0 W/m 0,7 C 3,4 C 12,9 km/h (3 Bft) 95,83 %
10.03.2017 20:16 5,7 C 70 % 1025,4 hPa 0,0 l/m 10,5 km/h (2 Bft) W 262 0 min 0,000 mm 0,0 UV-I 0 W/m 0,7 C 2,5 C 17,7 km/h (3 Bft) 95,74 %
10.03.2017 20:18 5,7 C 70 % 1025,4 hPa 0,0 l/m 8,3 km/h (2 Bft) W 267 0 min 0,000 mm 0,0 UV-I 0 W/m 0,7 C 4,1 C 12,9 km/h (3 Bft) 97,87 %
10.03.2017 20:21 5,7 C 70 % 1025,5 hPa 0,0 l/m 9,0 km/h (2 Bft) W 275 0 min 0,000 mm 0,0 UV-I 0 W/m 0,7 C 3,6 C 12,9 km/h (3 Bft) 94,37 %
10.03.2017 20:22 5,7 C 70 % 1025,5 hPa 0,0 l/m 8,0 km/h (2 Bft) W-NW 288 0 min 0,000 mm 0,0 UV-I 0 W/m 0,7 C 4,3 C 14,5 km/h (3 Bft) 95,83 %
10.03.2017 20:24 5,8 C 70 % 1025,5 hPa 0,0 l/m 8,5 km/h (2 Bft) W 259 0 min 0,000 mm 0,0 UV-I 0 W/m 0,8 C 4,0 C 14,5 km/h (3 Bft) 95,74 %
10.03.2017 20:26 5,8 C 70 % 1025,5 hPa 0,0 l/m 7,2 km/h (2 Bft) W 273 0 min 0,000 mm 0,0 UV-I 0 W/m 0,8 C 5,1 C 11,3 km/h (2 Bft) 91,49 %
10.03.2017 20:29 5,7 C 70 % 1025,5 hPa 0,0 l/m 10,4 km/h (2 Bft) W-SW 238 0 min 0,000 mm 0,0 UV-I 0 W/m 0,7 C 2,6 C 16,1 km/h (3 Bft) 92,86 %
10.03.2017 20:30 5,7 C 70 % 1025,5 hPa 0,0 l/m 9,5 km/h (2 Bft) SW 227 0 min 0,000 mm 0,0 UV-I 0 W/m 0,7 C 3,2 C 12,9 km/h (3 Bft) 100,00 %
10.03.2017 20:32 5,7 C 70 % 1025,5 hPa 0,0 l/m 10,8 km/h (2 Bft) W 261 0 min 0,000 mm 0,0 UV-I 0 W/m 0,7 C 2,3 C 16,1 km/h (3 Bft) 100,00 %
10.03.2017 20:34 5,7 C 70 % 1025,5 hPa 0,0 l/m 10,1 km/h (2 Bft) W-SW 250 0 min 0,000 mm 0,0 UV-I 0 W/m 0,7 C 2,8 C 14,5 km/h (3 Bft) 89,36 %
10.03.2017 20:36 5,7 C 70 % 1025,5 hPa 0,0 l/m 12,4 km/h (3 Bft) W 267 0 min 0,000 mm 0,0 UV-I 0 W/m 0,7 C 1,3 C 17,7 km/h (3 Bft) 95,74 %
10.03.2017 20:38 5,7 C 70 % 1025,6 hPa 0,0 l/m 12,5 km/h (3 Bft) W 272 0 min 0,000 mm 0,0 UV-I 0 W/m 0,7 C 1,3 C 14,5 km/h (3 Bft) 93,62 %
10.03.2017 20:40 5,8 C 70 % 1025,6 hPa 0,0 l/m 10,9 km/h (2 Bft) W-SW 244 0 min 0,000 mm 0,0 UV-I 0 W/m 0,8 C 2,4 C 16,1 km/h (3 Bft) 94,74 %
10.03.2017 20:42 5,8 C 70 % 1025,6 hPa 0,0 l/m 9,7 km/h (2 Bft) W 275 0 min 0,000 mm 0,0 UV-I 0 W/m 0,8 C 3,2 C 12,9 km/h (3 Bft) 96,00 %
10.03.2017 20:44 5,7 C 70 % 1025,6 hPa 0,0 l/m 8,3 km/h (2 Bft) W 269 0 min 0,000 mm 0,0 UV-I 0 W/m 0,7 C 4,1 C 14,5 km/h (3 Bft) 91,49 %
10.03.2017 20:46 5,7 C 71 % 1025,6 hPa 0,0 l/m 8,3 km/h (2 Bft) W 278 0 min 0,000 mm 0,0 UV-I 0 W/m 0,9 C 4,1 C 12,9 km/h (3 Bft) 96,00 %
10.03.2017 20:48 5,7 C 71 % 1025,7 hPa 0,0 l/m 7,5 km/h (2 Bft) W 266 0 min 0,000 mm 0,0 UV-I 0 W/m 0,9 C 4,8 C 11,3 km/h (2 Bft) 95,74 %
10.03.2017 20:50 5,7 C 71 % 1025,7 hPa 0,0 l/m 8,1 km/h (2 Bft) W 279 0 min 0,000 mm 0,0 UV-I 0 W/m 0,9 C 4,3 C 12,9 km/h (3 Bft) 95,74 %
10.03.2017 20:52 5,6 C 71 % 1025,7 hPa 0,0 l/m 7,3 km/h (2 Bft) W 281 0 min 0,000 mm 0,0 UV-I 0 W/m 0,8 C 4,8 C 11,3 km/h (2 Bft) 96,00 %
10.03.2017 20:54 5,6 C 71 % 1025,7 hPa 0,0 l/m 7,3 km/h (2 Bft) W-NW 284 0 min 0,000 mm 0,0 UV-I 0 W/m 0,8 C 4,8 C 12,9 km/h (3 Bft) 97,22 %
10.03.2017 20:56 5,6 C 71 % 1025,7 hPa 0,0 l/m 6,5 km/h (2 Bft) W 263 0 min 0,000 mm 0,0 UV-I 0 W/m 0,8 C 5,5 C 11,3 km/h (2 Bft) 92,00 %
10.03.2017 20:58 5,6 C 71 % 1025,7 hPa 0,0 l/m 6,1 km/h (2 Bft) W 279 0 min 0,000 mm 0,0 UV-I 0 W/m 0,8 C 5,6 C 11,3 km/h (2 Bft) 95,83 %
10.03.2017 21:00 5,6 C 71 % 1025,7 hPa 0,0 l/m 5,3 km/h (1 Bft) W 261 0 min 0,000 mm 0,0 UV-I 0 W/m 0,8 C 5,6 C 11,3 km/h (2 Bft) 95,74 %
10.03.2017 21:02 5,6 C 71 % 1025,7 hPa 0,0 l/m 9,3 km/h (2 Bft) W 275 0 min 0,026 mm 0,0 UV-I 0 W/m 0,8 C 3,2 C 16,1 km/h (3 Bft) 95,74 %
10.03.2017 21:04 5,6 C 71 % 1025,7 hPa 0,0 l/m 5,5 km/h (1 Bft) W 261 0 min 0,000 mm 0,0 UV-I 0 W/m 0,8 C 5,6 C 11,3 km/h (2 Bft) 93,62 %
10.03.2017 21:06 5,6 C 71 % 1025,7 hPa 0,0 l/m 7,7 km/h (2 Bft) W 276 0 min 0,000 mm 0,0 UV-I 0 W/m 0,8 C 4,5 C 12,9 km/h (3 Bft) 94,34 %
10.03.2017 21:08 5,6 C 71 % 1025,8 hPa 0,0 l/m 6,0 km/h (2 Bft) W 265 0 min 0,000 mm 0,0 UV-I 0 W/m 0,8 C 5,6 C 11,3 km/h (2 Bft) 97,37 %
10.03.2017 21:10 5,6 C 71 % 1025,8 hPa 0,0 l/m 6,3 km/h (2 Bft) W 267 0 min 0,000 mm 0,0 UV-I 0 W/m 0,8 C 5,6 C 9,7 km/h (2 Bft) 95,74 %
10.03.2017 21:13 5,6 C 71 % 1025,8 hPa 0,0 l/m 6,7 km/h (2 Bft) W 273 0 min 0,000 mm 0,0 UV-I 0 W/m 0,8 C 5,4 C 12,9 km/h (3 Bft) 97,30 %
10.03.2017 21:14 5,6 C 72 % 1025,8 hPa 0,0 l/m 4,8 km/h (1 Bft) W 275 0 min 0,000 mm 0,0 UV-I 0 W/m 1,0 C 5,6 C 6,4 km/h (2 Bft) 92,31 %
10.03.2017 21:16 5,5 C 72 % 1025,9 hPa 0,0 l/m 4,7 km/h (1 Bft) W 278 0 min 0,000 mm 0,0 UV-I 0 W/m 0,9 C 5,5 C 9,7 km/h (2 Bft) 95,74 %
10.03.2017 21:18 5,5 C 72 % 1025,9 hPa 0,0 l/m 6,1 km/h (2 Bft) W 274 0 min 0,000 mm 0,0 UV-I 0 W/m 0,9 C 5,5 C 9,7 km/h (2 Bft) 97,87 %
10.03.2017 21:20 5,5 C 72 % 1025,9 hPa 0,0 l/m 5,3 km/h (1 Bft) W 265 0 min 0,000 mm 0,0 UV-I 0 W/m 0,9 C 5,5 C 9,7 km/h (2 Bft) 96,00 %
10.03.2017 21:22 5,5 C 72 % 1025,8 hPa 0,0 l/m 4,5 km/h (1 Bft) W 275 0 min 0,000 mm 0,0 UV-I 0 W/m 0,9 C 5,5 C 6,4 km/h (2 Bft) 93,62 %
10.03.2017 21:24 5,4 C 72 % 1025,9 hPa 0,0 l/m 3,5 km/h (1 Bft) W 275 0 min 0,000 mm 0,0 UV-I 0 W/m 0,8 C 5,4 C 4,8 km/h (1 Bft) 94,29 %
10.03.2017 21:26 5,3 C 72 % 1025,8 hPa 0,0 l/m 4,9 km/h (1 Bft) W 267 0 min 0,000 mm 0,0 UV-I 0 W/m 0,7 C 5,3 C 8,0 km/h (2 Bft) 96,00 %
10.03.2017 21:28 5,3 C 72 % 1025,8 hPa 0,0 l/m 6,1 km/h (2 Bft) W 268 0 min 0,000 mm 0,0 UV-I 0 W/m 0,7 C 5,3 C 11,3 km/h (2 Bft) 93,62 %
10.03.2017 21:30 5,3 C 72 % 1025,9 hPa 0,0 l/m 5,4 km/h (1 Bft) W 261 0 min 0,000 mm 0,0 UV-I 0 W/m 0,7 C 5,3 C 11,3 km/h (2 Bft) 95,74 %
10.03.2017 21:32 5,3 C 73 % 1025,8 hPa 0,0 l/m 6,8 km/h (2 Bft) W-SW 258 0 min 0,000 mm 0,0 UV-I 0 W/m 0,9 C 5,0 C 12,9 km/h (3 Bft) 97,92 %
10.03.2017 21:34 5,3 C 73 % 1025,8 hPa 0,0 l/m 6,5 km/h (2 Bft) W-NW 292 0 min 0,000 mm 0,0 UV-I 0 W/m 0,9 C 5,2 C 12,9 km/h (3 Bft) 98,08 %
10.03.2017 21:36 5,3 C 73 % 1025,8 hPa 0,0 l/m 4,9 km/h (1 Bft) W 265 0 min 0,000 mm 0,0 UV-I 0 W/m 0,9 C 5,3 C 9,7 km/h (2 Bft) 97,44 %
10.03.2017 21:38 5,3 C 73 % 1025,8 hPa 0,0 l/m 6,2 km/h (2 Bft) W-SW 252 0 min 0,000 mm 0,0 UV-I 0 W/m 0,9 C 5,3 C 11,3 km/h (2 Bft) 97,87 %
10.03.2017 21:40 5,3 C 73 % 1025,8 hPa 0,0 l/m 7,7 km/h (2 Bft) W 279 0 min 0,000 mm 0,0 UV-I 0 W/m 0,9 C 4,2 C 11,3 km/h (2 Bft) 97,87 %
10.03.2017 21:42 5,3 C 73 % 1025,8 hPa 0,0 l/m 6,1 km/h (2 Bft) W 281 0 min 0,000 mm 0,0 UV-I 0 W/m 0,9 C 5,3 C 11,3 km/h (2 Bft) 95,74 %
10.03.2017 21:44 5,3 C 73 % 1025,9 hPa 0,0 l/m 3,6 km/h (1 Bft) W 273 0 min 0,000 mm 0,0 UV-I 0 W/m 0,9 C 5,3 C 6,4 km/h (2 Bft) 95,74 %
10.03.2017 21:46 5,2 C 73 % 1025,9 hPa 0,0 l/m 5,4 km/h (1 Bft) W 279 0 min 0,000 mm 0,0 UV-I 0 W/m 0,8 C 5,2 C 9,7 km/h (2 Bft) 97,87 %
10.03.2017 21:48 5,2 C 73 % 1025,9 hPa 0,0 l/m 5,9 km/h (2 Bft) W 269 0 min 0,000 mm 0,0 UV-I 0 W/m 0,8 C 5,2 C 9,7 km/h (2 Bft) 100,00 %
10.03.2017 21:50 5,2 C 73 % 1025,8 hPa 0,0 l/m 5,4 km/h (1 Bft) W 271 0 min 0,000 mm 0,0 UV-I 0 W/m 0,8 C 5,2 C 9,7 km/h (2 Bft) 97,87 %
10.03.2017 21:52 5,2 C 73 % 1025,9 hPa 0,0 l/m 9,2 km/h (2 Bft) W 281 0 min 0,000 mm 0,0 UV-I 0 W/m 0,8 C 2,9 C 17,7 km/h (3 Bft) 100,00 %
10.03.2017 21:54 5,2 C 73 % 1025,9 hPa 0,0 l/m 8,0 km/h (2 Bft) W 269 0 min 0,000 mm 0,0 UV-I 0 W/m 0,8 C 3,8 C 12,9 km/h (3 Bft) 97,92 %
10.03.2017 21:56 5,3 C 73 % 1025,9 hPa 0,0 l/m 5,8 km/h (2 Bft) W 269 0 min 0,000 mm 0,0 UV-I 0 W/m 0,9 C 5,3 C 9,7 km/h (2 Bft) 93,62 %
10.03.2017 21:58 5,3 C 73 % 1025,9 hPa 0,0 l/m 5,2 km/h (1 Bft) W 267 0 min 0,000 mm 0,0 UV-I 0 W/m 0,9 C 5,3 C 6,4 km/h (2 Bft) 98,00 %
10.03.2017 22:00 5,2 C 73 % 1025,9 hPa 0,0 l/m 6,8 km/h (2 Bft) W 267 0 min 0,000 mm 0,0 UV-I 0 W/m 0,8 C 4,9 C 11,3 km/h (2 Bft) 97,87 %
10.03.2017 22:02 5,2 C 73 % 1025,9 hPa 0,0 l/m 5,3 km/h (1 Bft) W 268 0 min 0,025 mm 0,0 UV-I 0 W/m 0,8 C 5,2 C 9,7 km/h (2 Bft) 96,00 %
10.03.2017 22:04 5,2 C 73 % 1025,9 hPa 0,0 l/m 6,1 km/h (2 Bft) W 264 0 min 0,000 mm 0,0 UV-I 0 W/m 0,8 C 5,2 C 11,3 km/h (2 Bft) 100,00 %
10.03.2017 22:06 5,2 C 73 % 1025,9 hPa 0,0 l/m 7,0 km/h (2 Bft) W-SW 257 0 min 0,000 mm 0,0 UV-I 0 W/m 0,8 C 4,7 C 11,3 km/h (2 Bft) 97,37 %
10.03.2017 22:08 5,2 C 73 % 1025,9 hPa 0,0 l/m 4,8 km/h (1 Bft) W 265 0 min 0,000 mm 0,0 UV-I 0 W/m 0,8 C 5,2 C 6,4 km/h (2 Bft) 100,00 %
10.03.2017 22:10 5,2 C 73 % 1025,9 hPa 0,0 l/m 5,0 km/h (1 Bft) W-SW 258 0 min 0,000 mm 0,0 UV-I 0 W/m 0,8 C 5,2 C 6,4 km/h (2 Bft) 98,00 %
10.03.2017 22:12 5,2 C 74 % 1025,9 hPa 0,0 l/m 5,7 km/h (1 Bft) W-SW 252 0 min 0,000 mm 0,0 UV-I 0 W/m 1,0 C 5,2 C 8,0 km/h (2 Bft) 96,00 %
10.03.2017 22:14 5,1 C 74 % 1026,0 hPa 0,0 l/m 5,6 km/h (1 Bft) W-SW 254 0 min 0,000 mm 0,0 UV-I 0 W/m 0,9 C 5,1 C 6,4 km/h (2 Bft) 97,87 %
10.03.2017 22:16 5,1 C 74 % 1025,9 hPa 0,0 l/m 5,0 km/h (1 Bft) W-SW 250 0 min 0,000 mm 0,0 UV-I 0 W/m 0,9 C 5,1 C 6,4 km/h (2 Bft) 97,92 %
10.03.2017 22:18 5,1 C 74 % 1025,9 hPa 0,0 l/m 5,7 km/h (1 Bft) W-SW 255 0 min 0,000 mm 0,0 UV-I 0 W/m 0,9 C 5,1 C 9,7 km/h (2 Bft) 100,00 %
10.03.2017 22:20 5,1 C 74 % 1025,9 hPa 0,0 l/m 6,1 km/h (2 Bft) SW 234 0 min 0,000 mm 0,0 UV-I 0 W/m 0,9 C 5,1 C 8,0 km/h (2 Bft) 100,00 %
10.03.2017 22:22 5,0 C 74 % 1025,8 hPa 0,0 l/m 7,3 km/h (2 Bft) SW 219 0 min 0,000 mm 0,0 UV-I 0 W/m 0,8 C 4,2 C 9,7 km/h (2 Bft) 100,00 %
10.03.2017 22:24 5,0 C 75 % 1025,8 hPa 0,0 l/m 9,2 km/h (2 Bft) SW 225 0 min 0,000 mm 0,0 UV-I 0 W/m 0,9 C 2,7 C 11,3 km/h (2 Bft) 97,87 %
10.03.2017 22:26 5,0 C 75 % 1025,9 hPa 0,0 l/m 8,7 km/h (2 Bft) W-SW 253 0 min 0,000 mm 0,0 UV-I 0 W/m 0,9 C 3,0 C 12,9 km/h (3 Bft) 94,00 %
10.03.2017 22:28 5,0 C 75 % 1025,9 hPa 0,0 l/m 8,6 km/h (2 Bft) SW 234 0 min 0,000 mm 0,0 UV-I 0 W/m 0,9 C 3,1 C 12,9 km/h (3 Bft) 97,87 %
10.03.2017 22:30 4,9 C 75 % 1025,8 hPa 0,0 l/m 7,1 km/h (2 Bft) W-SW 245 0 min 0,000 mm 0,0 UV-I 0 W/m 0,8 C 4,3 C 11,3 km/h (2 Bft) 96,00 %
10.03.2017 22:32 4,9 C 75 % 1025,8 hPa 0,0 l/m 6,5 km/h (2 Bft) W 265 0 min 0,000 mm 0,0 UV-I 0 W/m 0,8 C 4,8 C 8,0 km/h (2 Bft) 94,00 %
10.03.2017 22:34 4,9 C 76 % 1025,9 hPa 0,0 l/m 8,4 km/h (2 Bft) W-SW 252 0 min 0,000 mm 0,0 UV-I 0 W/m 1,0 C 3,2 C 11,3 km/h (2 Bft) 100,00 %
10.03.2017 22:36 4,9 C 76 % 1025,9 hPa 0,0 l/m 6,1 km/h (2 Bft) W-SW 253 0 min 0,000 mm 0,0 UV-I 0 W/m 1,0 C 4,9 C 9,7 km/h (2 Bft) 97,87 %
10.03.2017 22:38 4,9 C 76 % 1025,9 hPa 0,0 l/m 5,0 km/h (1 Bft) W-SW 252 0 min 0,000 mm 0,0 UV-I 0 W/m 1,0 C 4,9 C 8,0 km/h (2 Bft) 93,62 %
10.03.2017 22:40 4,9 C 76 % 1025,9 hPa 0,0 l/m 7,0 km/h (2 Bft) W-SW 252 0 min 0,000 mm 0,0 UV-I 0 W/m 1,0 C 4,4 C 11,3 km/h (2 Bft) 97,87 %
10.03.2017 22:42 4,9 C 75 % 1025,9 hPa 0,0 l/m 6,6 km/h (2 Bft) W 259 0 min 0,000 mm 0,0 UV-I 0 W/m 0,8 C 4,7 C 11,3 km/h (2 Bft) 100,00 %
10.03.2017 22:44 4,9 C 75 % 1026,0 hPa 0,0 l/m 6,7 km/h (2 Bft) W-SW 248 0 min 0,000 mm 0,0 UV-I 0 W/m 0,8 C 4,7 C 11,3 km/h (2 Bft) 95,74 %
10.03.2017 22:46 4,9 C 75 % 1026,0 hPa 0,0 l/m 6,2 km/h (2 Bft) W-NW 283 0 min 0,000 mm 0,0 UV-I 0 W/m 0,8 C 4,9 C 11,3 km/h (2 Bft) 94,29 %
10.03.2017 22:48 4,9 C 76 % 1026,0 hPa 0,0 l/m 5,1 km/h (1 Bft) W 273 0 min 0,000 mm 0,0 UV-I 0 W/m 1,0 C 4,9 C 6,4 km/h (2 Bft) 97,92 %
10.03.2017 22:50 4,9 C 76 % 1026,0 hPa 0,0 l/m 5,8 km/h (2 Bft) W-SW 252 0 min 0,000 mm 0,0 UV-I 0 W/m 1,0 C 4,9 C 11,3 km/h (2 Bft) 95,74 %
10.03.2017 22:52 4,9 C 75 % 1026,0 hPa 0,0 l/m 6,4 km/h (2 Bft) SW 236 0 min 0,000 mm 0,0 UV-I 0 W/m 0,8 C 4,9 C 8,0 km/h (2 Bft) 97,87 %
10.03.2017 22:54 4,9 C 75 % 1025,9 hPa 0,0 l/m 5,4 km/h (1 Bft) W-SW 252 0 min 0,000 mm 0,0 UV-I 0 W/m 0,8 C 4,9 C 8,0 km/h (2 Bft) 95,74 %
10.03.2017 22:56 4,9 C 76 % 1025,9 hPa 0,0 l/m 5,2 km/h (1 Bft) W-SW 244 0 min 0,000 mm 0,0 UV-I 0 W/m 1,0 C 4,9 C 8,0 km/h (2 Bft) 93,62 %
10.03.2017 22:58 4,9 C 76 % 1025,9 hPa 0,0 l/m 6,2 km/h (2 Bft) W-SW 246 0 min 0,000 mm 0,0 UV-I 0 W/m 1,0 C 4,9 C 11,3 km/h (2 Bft) 95,83 %
10.03.2017 23:00 4,9 C 76 % 1026,0 hPa 0,0 l/m 5,6 km/h (1 Bft) W-SW 254 0 min 0,000 mm 0,0 UV-I 0 W/m 1,0 C 4,9 C 8,0 km/h (2 Bft) 95,74 %
10.03.2017 23:02 4,9 C 76 % 1025,9 hPa 0,0 l/m 5,1 km/h (1 Bft) W-SW 253 0 min 0,026 mm 0,0 UV-I 0 W/m 1,0 C 4,9 C 11,3 km/h (2 Bft) 97,96 %
10.03.2017 23:04 4,8 C 76 % 1025,9 hPa 0,0 l/m 6,2 km/h (2 Bft) W 262 0 min 0,000 mm 0,0 UV-I 0 W/m 0,9 C 4,8 C 9,7 km/h (2 Bft) 97,87 %
10.03.2017 23:06 4,8 C 76 % 1026,0 hPa 0,0 l/m 5,2 km/h (1 Bft) W 263 0 min 0,000 mm 0,0 UV-I 0 W/m 0,9 C 4,8 C 9,7 km/h (2 Bft) 97,87 %
10.03.2017 23:08 4,8 C 76 % 1025,9 hPa 0,0 l/m 5,7 km/h (1 Bft) W 260 0 min 0,000 mm 0,0 UV-I 0 W/m 0,9 C 4,8 C 9,7 km/h (2 Bft) 95,74 %
10.03.2017 23:10 4,9 C 76 % 1025,9 hPa 0,0 l/m 5,3 km/h (1 Bft) W-SW 252 0 min 0,000 mm 0,0 UV-I 0 W/m 1,0 C 4,9 C 6,4 km/h (2 Bft) 91,49 %
10.03.2017 23:12 4,8 C 76 % 1025,9 hPa 0,0 l/m 5,6 km/h (1 Bft) W 271 0 min 0,000 mm 0,0 UV-I 0 W/m 0,9 C 4,8 C 9,7 km/h (2 Bft) 95,74 %
10.03.2017 23:14 4,8 C 76 % 1026,0 hPa 0,0 l/m 5,1 km/h (1 Bft) W 265 0 min 0,000 mm 0,0 UV-I 0 W/m 0,9 C 4,8 C 9,7 km/h (2 Bft) 96,00 %
10.03.2017 23:16 4,8 C 77 % 1025,9 hPa 0,0 l/m 6,6 km/h (2 Bft) W 265 0 min 0,000 mm 0,0 UV-I 0 W/m 1,1 C 4,6 C 12,9 km/h (3 Bft) 95,74 %
10.03.2017 23:18 4,8 C 76 % 1025,9 hPa 0,0 l/m 4,3 km/h (1 Bft) W 267 0 min 0,000 mm 0,0 UV-I 0 W/m 0,9 C 4,8 C 6,4 km/h (2 Bft) 97,37 %
10.03.2017 23:20 4,8 C 76 % 1025,9 hPa 0,0 l/m 5,9 km/h (2 Bft) W-SW 257 0 min 0,000 mm 0,0 UV-I 0 W/m 0,9 C 4,8 C 9,7 km/h (2 Bft) 98,08 %
10.03.2017 23:22 4,8 C 76 % 1025,9 hPa 0,0 l/m 5,6 km/h (1 Bft) W 259 0 min 0,000 mm 0,0 UV-I 0 W/m 0,9 C 4,8 C 9,7 km/h (2 Bft) 100,00 %
10.03.2017 23:24 4,8 C 76 % 1025,9 hPa 0,0 l/m 4,9 km/h (1 Bft) W 277 0 min 0,000 mm 0,0 UV-I 0 W/m 0,9 C 4,8 C 6,4 km/h (2 Bft) 100,00 %
10.03.2017 23:26 4,8 C 76 % 1025,9 hPa 0,0 l/m 5,2 km/h (1 Bft) W-SW 254 0 min 0,000 mm 0,0 UV-I 0 W/m 0,9 C 4,8 C 8,0 km/h (2 Bft) 100,00 %
10.03.2017 23:28 4,8 C 76 % 1025,9 hPa 0,0 l/m 6,7 km/h (2 Bft) W 259 0 min 0,000 mm 0,0 UV-I 0 W/m 0,9 C 4,6 C 9,7 km/h (2 Bft) 95,74 %
10.03.2017 23:30 4,9 C 76 % 1025,9 hPa 0,0 l/m 7,8 km/h (2 Bft) W 259 0 min 0,000 mm 0,0 UV-I 0 W/m 1,0 C 3,7 C 11,3 km/h (2 Bft) 97,87 %
10.03.2017 23:32 4,8 C 76 % 1025,9 hPa 0,0 l/m 5,5 km/h (1 Bft) W 259 0 min 0,000 mm 0,0 UV-I 0 W/m 0,9 C 4,8 C 6,4 km/h (2 Bft) 100,00 %
10.03.2017 23:34 4,8 C 76 % 1025,9 hPa 0,0 l/m 6,1 km/h (2 Bft) W-SW 251 0 min 0,000 mm 0,0 UV-I 0 W/m 0,9 C 4,8 C 9,7 km/h (2 Bft) 97,92 %
10.03.2017 23:36 4,8 C 76 % 1026,0 hPa 0,0 l/m 4,1 km/h (1 Bft) W-SW 251 0 min 0,000 mm 0,0 UV-I 0 W/m 0,9 C 4,8 C 6,4 km/h (2 Bft) 100,00 %
10.03.2017 23:38 4,8 C 76 % 1026,0 hPa 0,0 l/m 5,1 km/h (1 Bft) SW 233 0 min 0,000 mm 0,0 UV-I 0 W/m 0,9 C 4,8 C 8,0 km/h (2 Bft) 100,00 %
10.03.2017 23:40 4,8 C 77 % 1025,9 hPa 0,0 l/m 5,6 km/h (1 Bft) SW 236 0 min 0,000 mm 0,0 UV-I 0 W/m 1,1 C 4,8 C 6,4 km/h (2 Bft) 100,00 %
10.03.2017 23:42 4,8 C 77 % 1026,0 hPa 0,0 l/m 6,0 km/h (2 Bft) SW 234 0 min 0,000 mm 0,0 UV-I 0 W/m 1,1 C 4,8 C 8,0 km/h (2 Bft) 100,00 %
10.03.2017 23:44 4,7 C 77 % 1025,9 hPa 0,0 l/m 6,7 km/h (2 Bft) W-SW 243 0 min 0,000 mm 0,0 UV-I 0 W/m 1,0 C 4,4 C 9,7 km/h (2 Bft) 93,62 %
10.03.2017 23:46 4,7 C 77 % 1026,0 hPa 0,0 l/m 6,9 km/h (2 Bft) SW 232 0 min 0,000 mm 0,0 UV-I 0 W/m 1,0 C 4,3 C 9,7 km/h (2 Bft) 92,00 %
10.03.2017 23:48 4,6 C 77 % 1026,0 hPa 0,0 l/m 7,0 km/h (2 Bft) SW 232 0 min 0,000 mm 0,0 UV-I 0 W/m 0,9 C 4,1 C 9,7 km/h (2 Bft) 100,00 %
10.03.2017 23:50 4,6 C 78 % 1025,9 hPa 0,0 l/m 6,5 km/h (2 Bft) SW 219 0 min 0,000 mm 0,0 UV-I 0 W/m 1,1 C 4,5 C 9,7 km/h (2 Bft) 95,74 %
10.03.2017 23:52 4,5 C 78 % 1026,1 hPa 0,0 l/m 6,3 km/h (2 Bft) SW 229 0 min 0,000 mm 0,0 UV-I 0 W/m 1,0 C 4,5 C 9,7 km/h (2 Bft) 94,00 %
10.03.2017 23:54 4,4 C 78 % 1026,1 hPa 0,0 l/m 6,0 km/h (2 Bft) SW 234 0 min 0,000 mm 0,0 UV-I 0 W/m 0,9 C 4,4 C 8,0 km/h (2 Bft) 91,43 %
10.03.2017 23:56 4,4 C 79 % 1026,0 hPa 0,0 l/m 6,7 km/h (2 Bft) W-SW 240 0 min 0,000 mm 0,0 UV-I 0 W/m 1,1 C 4,1 C 9,7 km/h (2 Bft) 94,23 %
10.03.2017 23:58 4,3 C 79 % 1026,1 hPa 0,0 l/m 7,4 km/h (2 Bft) SW 229 0 min 0,000 mm 0,0 UV-I 0 W/m 1,0 C 3,4 C 9,7 km/h (2 Bft) 94,34 %
_ Min-Zeit 23:58 16:08 00:00 - 21:24 - - - - - - 16:08 09:16 21:24 06:40
Minimum _ 4,3 C 60 % 1016,2 hPa - 3,5 km/h (1 Bft) - - - - - - -0,3 C -5,2 C 4,8 km/h (1 Bft) 85,11 %
_ Max-Zeit 00:00 00:20 23:52 00:14 12:56 - - 06:38 14:00 13:36 13:38 00:22 00:16 13:16 00:36
Maximum _ 8,1 C 94 % 1026,1 hPa 0,2 l/m 30,4 km/h
W-SW (5 Bft)
- - 2 min 0,152 mm 1,0 UV-I 292 W/m 7,2 C 7,4 C 53,1 km/h
W-SW (7 Bft)
100,00 %
Durchschnitt _ 6,1 C 76 % 1021,6 hPa #0,6 l/m 14,0 km/h (3 Bft) W - #2 min. #1,245 mm 0,6 UV-I 96 W/m 2,0 C 1,3 C 23,5 km/h (4 Bft) 96,34 %